Time,TemperatureF,DewpointF,PressureIn,WindDirection,WindDirectionDegrees,WindSpeedMPH,WindSpeedGustMPH,Humidity,HourlyPrecipIn,Conditions,Clouds,dailyrainin,SoftwareType,DateUTC
2013-01-26 00:00:00,18.2,16.3,30.00,NW,313,0.0,0.0,92,0.00,,,0.00,Wunderground v.1.15,2013-01-26 05:00:00,
2013-01-26 00:02:00,18.2,16.3,30.00,NW,313,0.0,0.0,92,0.00,,,0.00,Wunderground v.1.15,2013-01-26 05:02:00,
2013-01-26 00:04:00,18.2,16.3,30.00,N/A,-737280,0.0,-999.0,92,0.00,,,0.00,Wunderground v.1.15,2013-01-26 05:04:00,
2013-01-26 00:05:00,18.3,16.4,30.00,NW,313,0.0,0.0,92,0.00,,,0.00,Wunderground v.1.15,2013-01-26 05:05:00,
2013-01-26 00:07:00,18.2,16.3,30.00,N/A,-737280,0.0,-999.0,92,0.00,,,0.00,Wunderground v.1.15,2013-01-26 05:07:00,
2013-01-26 00:09:00,18.2,16.3,30.00,N/A,-737280,0.0,-999.0,92,0.00,,,0.00,Wunderground v.1.15,2013-01-26 05:09:00,
2013-01-26 00:10:00,18.3,16.4,30.00,NW,313,0.0,0.0,92,0.00,,,0.00,Wunderground v.1.15,2013-01-26 05:10:00,
2013-01-26 00:12:00,18.2,16.3,30.00,N/A,-737280,0.0,-999.0,92,0.00,,,0.00,Wunderground v.1.15,2013-01-26 05:12:00,
2013-01-26 00:14:00,18.2,16.3,30.00,N/A,-737280,0.0,-999.0,92,0.00,,,0.00,Wunderground v.1.15,2013-01-26 05:14:00,
2013-01-26 00:15:00,18.3,16.4,30.00,NW,313,0.0,0.0,92,0.00,,,0.00,Wunderground v.1.15,2013-01-26 05:15:00,
2013-01-26 00:17:00,18.2,16.3,30.00,N/A,-737280,0.0,-999.0,92,0.00,,,0.00,Wunderground v.1.15,2013-01-26 05:17:00,
2013-01-26 00:19:00,18.2,16.3,30.00,N/A,-737280,0.0,-999.0,92,0.00,,,0.00,Wunderground v.1.15,2013-01-26 05:19:00,
2013-01-26 00:20:00,18.2,16.3,30.00,N/A,-737280,0.0,-999.0,92,0.00,,,0.00,Wunderground v.1.15,2013-01-26 05:20:00,
2013-01-26 00:21:00,18.3,16.4,30.00,NW,313,0.0,0.0,92,0.00,,,0.00,Wunderground v.1.15,2013-01-26 05:21:00,
2013-01-26 00:22:00,18.2,16.3,30.00,N/A,-737280,0.0,-999.0,92,0.00,,,0.00,Wunderground v.1.15,2013-01-26 05:22:00,
2013-01-26 00:24:00,18.2,16.3,30.00,N/A,-737280,0.0,-999.0,92,0.00,,,0.00,Wunderground v.1.15,2013-01-26 05:24:00,
2013-01-26 00:25:00,18.2,16.3,30.00,N/A,-737280,0.0,-999.0,92,0.00,,,0.00,Wunderground v.1.15,2013-01-26 05:25:00,
2013-01-26 00:26:00,18.3,16.4,30.00,NW,313,0.0,0.0,92,0.00,,,0.00,Wunderground v.1.15,2013-01-26 05:26:00,
2013-01-26 00:27:00,18.2,16.3,30.00,N/A,-737280,0.0,-999.0,92,0.00,,,0.00,Wunderground v.1.15,2013-01-26 05:27:00,
2013-01-26 00:29:00,18.2,16.3,30.00,N/A,-737280,0.0,-999.0,92,0.00,,,0.00,Wunderground v.1.15,2013-01-26 05:29:00,
2013-01-26 00:32:00,18.3,16.4,30.00,NW,313,0.0,0.0,92,0.00,,,0.00,Wunderground v.1.15,2013-01-26 05:32:00,
2013-01-26 00:34:00,18.2,16.3,30.00,N/A,-737280,0.0,-999.0,92,0.00,,,0.00,Wunderground v.1.15,2013-01-26 05:34:00,
2013-01-26 00:35:00,18.2,16.3,30.00,N/A,-737280,0.0,-999.0,92,0.00,,,0.00,Wunderground v.1.15,2013-01-26 05:35:00,
2013-01-26 00:37:00,18.2,16.3,30.00,NW,313,0.0,0.0,92,0.00,,,0.00,Wunderground v.1.15,2013-01-26 05:37:00,
2013-01-26 00:39:00,18.2,16.3,30.00,N/A,-737280,0.0,-999.0,92,0.00,,,0.00,Wunderground v.1.15,2013-01-26 05:39:00,
2013-01-26 00:40:00,18.2,16.3,30.00,N/A,-737280,0.0,-999.0,92,0.00,,,0.00,Wunderground v.1.15,2013-01-26 05:40:00,
2013-01-26 00:42:00,18.2,16.3,30.00,N/A,-737280,0.0,-999.0,92,0.00,,,0.00,Wunderground v.1.15,2013-01-26 05:42:00,
2013-01-26 00:43:00,18.2,16.3,30.00,NW,313,0.0,0.0,92,0.00,,,0.00,Wunderground v.1.15,2013-01-26 05:43:00,
2013-01-26 00:44:00,18.2,16.3,30.00,N/A,-737280,0.0,-999.0,92,0.00,,,0.00,Wunderground v.1.15,2013-01-26 05:44:00,
2013-01-26 00:45:00,18.1,16.2,30.01,NW,315,0.0,-999.0,92,0.00,,,0.00,Wunderground v.1.15,2013-01-26 05:45:00,
2013-01-26 00:47:00,18.1,16.2,30.01,NW,315,0.0,-999.0,92,0.00,,,0.00,Wunderground v.1.15,2013-01-26 05:47:00,
2013-01-26 00:48:00,18.2,16.3,30.00,NW,313,0.0,0.0,92,0.00,,,0.00,Wunderground v.1.15,2013-01-26 05:48:00,
2013-01-26 00:49:00,18.1,16.2,30.01,NW,315,0.0,-999.0,92,0.00,,,0.00,Wunderground v.1.15,2013-01-26 05:49:00,
2013-01-26 00:50:00,18.1,16.2,30.01,NW,315,0.0,-999.0,92,0.00,,,0.00,Wunderground v.1.15,2013-01-26 05:50:00,
2013-01-26 00:52:00,18.1,16.2,30.01,NW,315,0.0,-999.0,92,0.00,,,0.00,Wunderground v.1.15,2013-01-26 05:52:00,
2013-01-26 00:54:00,18.2,16.3,30.00,NW,313,0.0,0.0,92,0.00,,,0.00,Wunderground v.1.15,2013-01-26 05:54:00,
2013-01-26 00:55:00,18.1,16.2,30.01,NW,315,0.0,-999.0,92,0.00,,,0.00,Wunderground v.1.15,2013-01-26 05:55:00,
2013-01-26 00:57:00,18.1,16.2,30.01,NW,315,0.0,-999.0,92,0.00,,,0.00,Wunderground v.1.15,2013-01-26 05:57:00,
2013-01-26 00:59:00,18.1,16.2,30.00,NW,313,0.0,0.0,92,0.00,,,0.00,Wunderground v.1.15,2013-01-26 05:59:00,
2013-01-26 01:00:00,18.1,16.2,30.01,NW,315,0.0,-999.0,92,0.00,,,0.00,Wunderground v.1.15,2013-01-26 06:00:00,
2013-01-26 01:02:00,18.1,16.2,30.01,NW,315,0.0,-999.0,92,0.00,,,0.00,Wunderground v.1.15,2013-01-26 06:02:00,
2013-01-26 01:04:00,18.1,16.2,30.01,NW,315,0.0,-999.0,92,0.00,,,0.00,Wunderground v.1.15,2013-01-26 06:04:00,
2013-01-26 01:05:00,18.1,16.2,30.00,NW,313,0.0,0.0,92,0.00,,,0.00,Wunderground v.1.15,2013-01-26 06:05:00,
2013-01-26 01:07:00,18.1,16.2,30.01,NW,315,0.0,-999.0,92,0.00,,,0.00,Wunderground v.1.15,2013-01-26 06:07:00,
2013-01-26 01:09:00,18.1,16.2,30.01,NW,315,0.0,-999.0,92,0.00,,,0.00,Wunderground v.1.15,2013-01-26 06:09:00,
2013-01-26 01:10:00,18.1,16.2,30.01,NW,315,0.0,-999.0,92,0.00,,,0.00,Wunderground v.1.15,2013-01-26 06:10:00,
2013-01-26 01:11:00,18.2,16.3,30.01,NW,313,0.0,0.0,92,0.00,,,0.00,Wunderground v.1.15,2013-01-26 06:11:00,
2013-01-26 01:12:00,18.1,16.2,30.01,NW,315,0.0,-999.0,92,0.00,,,0.00,Wunderground v.1.15,2013-01-26 06:12:00,
2013-01-26 01:14:00,18.1,16.2,30.01,NW,315,0.0,-999.0,92,0.00,,,0.00,Wunderground v.1.15,2013-01-26 06:14:00,
2013-01-26 01:15:00,19.4,17.5,30.00,NW,315,0.0,-999.0,92,0.00,,,0.00,Wunderground v.1.15,2013-01-26 06:15:00,
2013-01-26 01:16:00,18.3,16.4,30.01,NW,313,0.0,1.0,92,0.00,,,0.00,Wunderground v.1.15,2013-01-26 06:16:00,
2013-01-26 01:17:00,19.4,17.5,30.00,NW,315,0.0,-999.0,92,0.00,,,0.00,Wunderground v.1.15,2013-01-26 06:17:00,
2013-01-26 01:19:00,19.4,17.5,30.00,NW,315,0.0,-999.0,92,0.00,,,0.00,Wunderground v.1.15,2013-01-26 06:19:00,
2013-01-26 01:20:00,19.4,17.5,30.00,NW,315,0.0,-999.0,92,0.00,,,0.00,Wunderground v.1.15,2013-01-26 06:20:00,
2013-01-26 01:22:00,18.7,16.8,30.01,NW,312,0.0,1.0,92,0.00,,,0.00,Wunderground v.1.15,2013-01-26 06:22:00,
2013-01-26 01:24:00,19.4,17.5,30.00,NW,315,0.0,-999.0,92,0.00,,,0.00,Wunderground v.1.15,2013-01-26 06:24:00,
2013-01-26 01:25:00,19.4,17.5,30.00,NW,315,0.0,-999.0,92,0.00,,,0.00,Wunderground v.1.15,2013-01-26 06:25:00,
2013-01-26 01:27:00,19.1,17.4,30.00,NW,311,0.0,2.0,93,0.00,,,0.00,Wunderground v.1.15,2013-01-26 06:27:00,
2013-01-26 01:29:00,19.4,17.5,30.00,NW,315,0.0,-999.0,92,0.00,,,0.00,Wunderground v.1.15,2013-01-26 06:29:00,
2013-01-26 01:30:00,19.4,17.5,30.00,NW,315,0.0,-999.0,92,0.00,,,0.00,Wunderground v.1.15,2013-01-26 06:30:00,
2013-01-26 01:32:00,19.4,17.5,30.00,NW,315,0.0,-999.0,92,0.00,,,0.00,Wunderground v.1.15,2013-01-26 06:32:00,
2013-01-26 01:34:00,19.3,17.6,30.00,NW,311,0.0,0.0,93,0.00,,,0.00,Wunderground v.1.15,2013-01-26 06:34:00,
2013-01-26 01:35:00,19.4,17.5,30.00,NW,315,0.0,-999.0,92,0.00,,,0.00,Wunderground v.1.15,2013-01-26 06:35:00,
2013-01-26 01:37:00,19.4,17.5,30.00,NW,315,0.0,-999.0,92,0.00,,,0.00,Wunderground v.1.15,2013-01-26 06:37:00,
2013-01-26 01:39:00,19.4,17.5,30.00,NW,312,2.0,2.0,92,0.00,,,0.00,Wunderground v.1.15,2013-01-26 06:39:00,
2013-01-26 01:40:00,19.4,17.5,30.00,NW,315,0.0,-999.0,92,0.00,,,0.00,Wunderground v.1.15,2013-01-26 06:40:00,
2013-01-26 01:42:00,19.4,17.5,30.00,NW,315,0.0,-999.0,92,0.00,,,0.00,Wunderground v.1.15,2013-01-26 06:42:00,
2013-01-26 01:44:00,19.4,17.5,30.00,NW,315,0.0,-999.0,92,0.00,,,0.00,Wunderground v.1.15,2013-01-26 06:44:00,
2013-01-26 01:45:00,19.5,17.6,30.00,NW,311,0.0,4.0,92,0.00,,,0.00,Wunderground v.1.15,2013-01-26 06:45:00,
2013-01-26 01:47:00,20.0,18.1,30.02,NW,315,1.0,-999.0,92,0.00,,,0.00,Wunderground v.1.15,2013-01-26 06:47:00,
2013-01-26 01:49:00,20.0,18.1,30.02,NW,315,1.0,-999.0,92,0.00,,,0.00,Wunderground v.1.15,2013-01-26 06:49:00,
2013-01-26 01:50:00,20.0,18.1,30.02,NW,315,1.0,-999.0,92,0.00,,,0.00,Wunderground v.1.15,2013-01-26 06:50:00,
2013-01-26 01:51:00,19.6,17.7,30.00,NW,312,0.0,1.0,92,0.00,,,0.00,Wunderground v.1.15,2013-01-26 06:51:00,
2013-01-26 01:52:00,20.0,18.1,30.02,NW,315,1.0,-999.0,92,0.00,,,0.00,Wunderground v.1.15,2013-01-26 06:52:00,
2013-01-26 01:54:00,20.0,18.1,30.02,NW,315,1.0,-999.0,92,0.00,,,0.00,Wunderground v.1.15,2013-01-26 06:54:00,
2013-01-26 01:55:00,20.0,18.1,30.02,NW,315,1.0,-999.0,92,0.00,,,0.00,Wunderground v.1.15,2013-01-26 06:55:00,
2013-01-26 01:56:00,19.8,17.9,30.01,NW,313,1.0,5.0,92,0.00,,,0.00,Wunderground v.1.15,2013-01-26 06:56:00,
2013-01-26 01:57:00,20.0,18.1,30.02,NW,315,1.0,-999.0,92,0.00,,,0.00,Wunderground v.1.15,2013-01-26 06:57:00,
2013-01-26 01:59:00,20.0,18.1,30.02,NW,315,1.0,-999.0,92,0.00,,,0.00,Wunderground v.1.15,2013-01-26 06:59:00,
2013-01-26 02:00:00,20.0,18.1,30.02,NW,315,1.0,-999.0,92,0.00,,,0.00,Wunderground v.1.15,2013-01-26 07:00:00,
2013-01-26 02:02:00,19.8,17.9,30.01,NW,313,0.0,1.0,92,0.00,,,0.00,Wunderground v.1.15,2013-01-26 07:02:00,
2013-01-26 02:04:00,20.0,18.1,30.02,NW,315,1.0,-999.0,92,0.00,,,0.00,Wunderground v.1.15,2013-01-26 07:04:00,
2013-01-26 02:05:00,20.0,18.1,30.02,NW,315,1.0,-999.0,92,0.00,,,0.00,Wunderground v.1.15,2013-01-26 07:05:00,
2013-01-26 02:07:00,19.9,18.0,30.01,NW,326,2.0,5.0,92,0.00,,,0.00,Wunderground v.1.15,2013-01-26 07:07:00,
2013-01-26 02:09:00,20.0,18.1,30.02,NW,315,1.0,-999.0,92,0.00,,,0.00,Wunderground v.1.15,2013-01-26 07:09:00,
2013-01-26 02:10:00,20.0,18.1,30.02,NW,315,1.0,-999.0,92,0.00,,,0.00,Wunderground v.1.15,2013-01-26 07:10:00,
2013-01-26 02:12:00,20.0,18.1,30.02,NNW,329,0.0,3.0,92,0.00,,,0.00,Wunderground v.1.15,2013-01-26 07:12:00,
2013-01-26 02:14:00,20.0,18.1,30.02,NW,315,1.0,-999.0,92,0.00,,,0.00,Wunderground v.1.15,2013-01-26 07:14:00,
2013-01-26 02:15:00,20.0,18.1,30.03,NNW,338,1.0,-999.0,92,0.00,,,0.00,Wunderground v.1.15,2013-01-26 07:15:00,
2013-01-26 02:17:00,20.0,18.1,30.02,NNW,338,0.0,4.0,92,0.00,,,0.00,Wunderground v.1.15,2013-01-26 07:17:00,
2013-01-26 02:19:00,20.0,18.1,30.03,NNW,338,1.0,-999.0,92,0.00,,,0.00,Wunderground v.1.15,2013-01-26 07:19:00,
2013-01-26 02:20:00,20.0,18.1,30.03,NNW,338,1.0,-999.0,92,0.00,,,0.00,Wunderground v.1.15,2013-01-26 07:20:00,
2013-01-26 02:22:00,20.1,18.1,30.02,NNW,338,2.0,4.0,92,0.00,,,0.00,Wunderground v.1.15,2013-01-26 07:22:00,
2013-01-26 02:24:00,20.0,18.1,30.03,NNW,338,1.0,-999.0,92,0.00,,,0.00,Wunderground v.1.15,2013-01-26 07:24:00,
2013-01-26 02:25:00,20.0,18.1,30.03,NNW,338,1.0,-999.0,92,0.00,,,0.00,Wunderground v.1.15,2013-01-26 07:25:00,
2013-01-26 02:27:00,20.1,18.1,30.03,NNW,338,1.0,4.0,92,0.00,,,0.00,Wunderground v.1.15,2013-01-26 07:27:00,
2013-01-26 02:29:00,20.0,18.1,30.03,NNW,338,1.0,-999.0,92,0.00,,,0.00,Wunderground v.1.15,2013-01-26 07:29:00,
2013-01-26 02:30:00,20.0,18.1,30.03,NNW,338,1.0,-999.0,92,0.00,,,0.00,Wunderground v.1.15,2013-01-26 07:30:00,
2013-01-26 02:32:00,20.0,18.1,30.03,NNW,338,0.0,1.0,92,0.00,,,0.00,Wunderground v.1.15,2013-01-26 07:32:00,
2013-01-26 02:34:00,20.0,18.1,30.03,NNW,338,1.0,-999.0,92,0.00,,,0.00,Wunderground v.1.15,2013-01-26 07:34:00,
2013-01-26 02:35:00,20.0,18.1,30.03,NNW,338,1.0,-999.0,92,0.00,,,0.00,Wunderground v.1.15,2013-01-26 07:35:00,
2013-01-26 02:37:00,20.0,18.1,30.03,NNW,329,1.0,4.0,92,0.00,,,0.00,Wunderground v.1.15,2013-01-26 07:37:00,
2013-01-26 02:39:00,20.0,18.1,30.03,NNW,338,1.0,-999.0,92,0.00,,,0.00,Wunderground v.1.15,2013-01-26 07:39:00,
2013-01-26 02:40:00,20.0,18.1,30.03,NNW,338,1.0,-999.0,92,0.00,,,0.00,Wunderground v.1.15,2013-01-26 07:40:00,
2013-01-26 02:41:00,20.0,18.1,30.03,NNW,329,0.0,2.0,92,0.00,,,0.00,Wunderground v.1.15,2013-01-26 07:41:00,
2013-01-26 02:42:00,20.0,18.1,30.03,NNW,338,1.0,-999.0,92,0.00,,,0.00,Wunderground v.1.15,2013-01-26 07:42:00,
2013-01-26 02:44:00,20.0,18.1,30.03,NNW,338,1.0,-999.0,92,0.00,,,0.00,Wunderground v.1.15,2013-01-26 07:44:00,
2013-01-26 02:45:00,20.0,18.1,30.04,NNW,338,0.0,-999.0,92,0.00,,,0.00,Wunderground v.1.15,2013-01-26 07:45:00,
2013-01-26 02:46:00,20.0,18.1,30.03,NNW,330,0.0,3.0,92,0.00,,,0.00,Wunderground v.1.15,2013-01-26 07:46:00,
2013-01-26 02:47:00,20.0,18.1,30.04,NNW,338,0.0,-999.0,92,0.00,,,0.00,Wunderground v.1.15,2013-01-26 07:47:00,
2013-01-26 02:49:00,20.0,18.1,30.04,NNW,338,0.0,-999.0,92,0.00,,,0.00,Wunderground v.1.15,2013-01-26 07:49:00,
2013-01-26 02:50:00,20.0,18.1,30.04,NNW,338,0.0,-999.0,92,0.00,,,0.00,Wunderground v.1.15,2013-01-26 07:50:00,
2013-01-26 02:52:00,20.0,18.1,30.03,NNW,330,0.0,2.0,92,0.00,,,0.00,Wunderground v.1.15,2013-01-26 07:52:00,
2013-01-26 02:54:00,20.0,18.1,30.04,NNW,338,0.0,-999.0,92,0.00,,,0.00,Wunderground v.1.15,2013-01-26 07:54:00,
2013-01-26 02:55:00,20.0,18.1,30.04,NNW,338,0.0,-999.0,92,0.00,,,0.00,Wunderground v.1.15,2013-01-26 07:55:00,
2013-01-26 02:57:00,20.0,18.1,30.04,NNW,330,0.0,2.0,92,0.00,,,0.00,Wunderground v.1.15,2013-01-26 07:57:00,
2013-01-26 02:59:00,20.0,18.1,30.04,NNW,338,0.0,-999.0,92,0.00,,,0.00,Wunderground v.1.15,2013-01-26 07:59:00,
2013-01-26 03:00:00,20.0,18.1,30.04,NNW,338,0.0,-999.0,92,0.00,,,0.00,Wunderground v.1.15,2013-01-26 08:00:00,
2013-01-26 03:02:00,20.0,18.1,30.04,NNW,330,1.0,4.0,92,0.00,,,0.00,Wunderground v.1.15,2013-01-26 08:02:00,
2013-01-26 03:04:00,20.0,18.1,30.04,NNW,338,0.0,-999.0,92,0.00,,,0.00,Wunderground v.1.15,2013-01-26 08:04:00,
2013-01-26 03:05:00,20.0,18.1,30.04,NNW,338,0.0,-999.0,92,0.00,,,0.00,Wunderground v.1.15,2013-01-26 08:05:00,
2013-01-26 03:07:00,20.0,18.1,30.04,NNW,330,0.0,4.0,92,0.00,,,0.00,Wunderground v.1.15,2013-01-26 08:07:00,
2013-01-26 03:09:00,20.0,18.1,30.04,NNW,338,0.0,-999.0,92,0.00,,,0.00,Wunderground v.1.15,2013-01-26 08:09:00,
2013-01-26 03:10:00,20.0,18.1,30.04,NNW,338,0.0,-999.0,92,0.00,,,0.00,Wunderground v.1.15,2013-01-26 08:10:00,
2013-01-26 03:12:00,20.0,18.1,30.04,NNW,330,1.0,3.0,92,0.00,,,0.00,Wunderground v.1.15,2013-01-26 08:12:00,
2013-01-26 03:14:00,20.0,18.1,30.04,NNW,338,0.0,-999.0,92,0.00,,,0.00,Wunderground v.1.15,2013-01-26 08:14:00,
2013-01-26 03:15:00,20.1,18.1,30.05,NNW,338,0.0,-999.0,92,0.00,,,0.00,Wunderground v.1.15,2013-01-26 08:15:00,
2013-01-26 03:17:00,20.0,18.1,30.04,NNW,330,0.0,3.0,92,0.00,,,0.00,Wunderground v.1.15,2013-01-26 08:17:00,
2013-01-26 03:19:00,20.1,18.1,30.05,NNW,338,0.0,-999.0,92,0.00,,,0.00,Wunderground v.1.15,2013-01-26 08:19:00,
2013-01-26 03:20:00,20.1,18.1,30.05,NNW,338,0.0,-999.0,92,0.00,,,0.00,Wunderground v.1.15,2013-01-26 08:20:00,
2013-01-26 03:22:00,20.0,18.1,30.04,NNW,330,0.0,0.0,92,0.00,,,0.00,Wunderground v.1.15,2013-01-26 08:22:00,
2013-01-26 03:24:00,20.1,18.1,30.05,NNW,338,0.0,-999.0,92,0.00,,,0.00,Wunderground v.1.15,2013-01-26 08:24:00,
2013-01-26 03:25:00,20.1,18.1,30.05,NNW,338,0.0,-999.0,92,0.00,,,0.00,Wunderground v.1.15,2013-01-26 08:25:00,
2013-01-26 03:27:00,20.0,18.1,30.04,NNW,330,0.0,4.0,92,0.00,,,0.00,Wunderground v.1.15,2013-01-26 08:27:00,
2013-01-26 03:29:00,20.1,18.1,30.05,NNW,338,0.0,-999.0,92,0.00,,,0.00,Wunderground v.1.15,2013-01-26 08:29:00,
2013-01-26 03:30:00,20.1,18.1,30.05,NNW,338,0.0,-999.0,92,0.00,,,0.00,Wunderground v.1.15,2013-01-26 08:30:00,
2013-01-26 03:32:00,20.1,18.1,30.04,NNW,331,0.0,0.0,92,0.00,,,0.00,Wunderground v.1.15,2013-01-26 08:32:00,
2013-01-26 03:34:00,20.1,18.1,30.05,NNW,338,0.0,-999.0,92,0.00,,,0.00,Wunderground v.1.15,2013-01-26 08:34:00,
2013-01-26 03:35:00,20.1,18.1,30.05,NNW,338,0.0,-999.0,92,0.00,,,0.00,Wunderground v.1.15,2013-01-26 08:35:00,
2013-01-26 03:37:00,20.0,18.1,30.04,NNW,335,0.0,5.0,92,0.00,,,0.00,Wunderground v.1.15,2013-01-26 08:37:00,
2013-01-26 03:39:00,20.1,18.1,30.05,NNW,338,0.0,-999.0,92,0.00,,,0.00,Wunderground v.1.15,2013-01-26 08:39:00,
2013-01-26 03:40:00,20.1,18.1,30.05,NNW,338,0.0,-999.0,92,0.00,,,0.00,Wunderground v.1.15,2013-01-26 08:40:00,
2013-01-26 03:42:00,20.1,18.1,30.05,North,355,0.0,3.0,92,0.00,,,0.00,Wunderground v.1.15,2013-01-26 08:42:00,
2013-01-26 03:44:00,20.1,18.1,30.05,NNW,338,0.0,-999.0,92,0.00,,,0.00,Wunderground v.1.15,2013-01-26 08:44:00,
2013-01-26 03:45:00,20.3,18.1,30.06,North,0,1.0,-999.0,91,0.00,,,0.00,Wunderground v.1.15,2013-01-26 08:45:00,
2013-01-26 03:47:00,20.2,18.2,30.05,NNW,336,1.0,6.0,92,0.00,,,0.00,Wunderground v.1.15,2013-01-26 08:47:00,
2013-01-26 03:49:00,20.3,18.1,30.06,North,0,1.0,-999.0,91,0.00,,,0.00,Wunderground v.1.15,2013-01-26 08:49:00,
2013-01-26 03:50:00,20.3,18.1,30.06,North,0,1.0,-999.0,91,0.00,,,0.00,Wunderground v.1.15,2013-01-26 08:50:00,
2013-01-26 03:52:00,20.2,18.2,30.05,North,9,1.0,5.0,92,0.00,,,0.00,Wunderground v.1.15,2013-01-26 08:52:00,
2013-01-26 03:54:00,20.3,18.1,30.06,North,0,1.0,-999.0,91,0.00,,,0.00,Wunderground v.1.15,2013-01-26 08:54:00,
2013-01-26 03:55:00,20.3,18.1,30.06,North,0,1.0,-999.0,91,0.00,,,0.00,Wunderground v.1.15,2013-01-26 08:55:00,
2013-01-26 03:57:00,20.3,18.1,30.06,North,11,0.0,5.0,91,0.00,,,0.00,Wunderground v.1.15,2013-01-26 08:57:00,
2013-01-26 03:59:00,20.3,18.1,30.06,North,0,1.0,-999.0,91,0.00,,,0.00,Wunderground v.1.15,2013-01-26 08:59:00,
2013-01-26 04:00:00,20.3,18.1,30.06,North,0,1.0,-999.0,91,0.00,,,0.00,Wunderground v.1.15,2013-01-26 09:00:00,
2013-01-26 04:02:00,20.3,18.1,30.06,North,11,0.0,4.0,91,0.00,,,0.00,Wunderground v.1.15,2013-01-26 09:02:00,
2013-01-26 04:04:00,20.3,18.1,30.06,North,0,1.0,-999.0,91,0.00,,,0.00,Wunderground v.1.15,2013-01-26 09:04:00,
2013-01-26 04:05:00,20.3,18.1,30.06,North,0,1.0,-999.0,91,0.00,,,0.00,Wunderground v.1.15,2013-01-26 09:05:00,
2013-01-26 04:07:00,20.3,18.1,30.06,NNE,24,0.0,5.0,91,0.00,,,0.00,Wunderground v.1.15,2013-01-26 09:07:00,
2013-01-26 04:09:00,20.3,18.1,30.06,North,0,1.0,-999.0,91,0.00,,,0.00,Wunderground v.1.15,2013-01-26 09:09:00,
2013-01-26 04:10:00,20.3,18.1,30.06,North,0,1.0,-999.0,91,0.00,,,0.00,Wunderground v.1.15,2013-01-26 09:10:00,
2013-01-26 04:12:00,20.3,18.1,30.06,NNE,12,0.0,4.0,91,0.00,,,0.00,Wunderground v.1.15,2013-01-26 09:12:00,
2013-01-26 04:14:00,20.3,18.1,30.06,North,0,1.0,-999.0,91,0.00,,,0.00,Wunderground v.1.15,2013-01-26 09:14:00,
2013-01-26 04:15:00,20.2,18.0,30.07,North,0,1.0,-999.0,91,0.00,,,0.00,Wunderground v.1.15,2013-01-26 09:15:00,
2013-01-26 04:17:00,20.2,18.0,30.06,North,11,0.0,4.0,91,0.00,,,0.00,Wunderground v.1.15,2013-01-26 09:17:00,
2013-01-26 04:19:00,20.2,18.0,30.07,North,0,1.0,-999.0,91,0.00,,,0.00,Wunderground v.1.15,2013-01-26 09:19:00,
2013-01-26 04:20:00,20.2,18.0,30.07,North,0,1.0,-999.0,91,0.00,,,0.00,Wunderground v.1.15,2013-01-26 09:20:00,
2013-01-26 04:22:00,20.3,18.1,30.06,North,360,2.0,2.0,91,0.00,,,0.00,Wunderground v.1.15,2013-01-26 09:22:00,
2013-01-26 04:24:00,20.2,18.0,30.07,North,0,1.0,-999.0,91,0.00,,,0.00,Wunderground v.1.15,2013-01-26 09:24:00,
2013-01-26 04:25:00,20.2,18.0,30.07,North,0,1.0,-999.0,91,0.00,,,0.00,Wunderground v.1.15,2013-01-26 09:25:00,
2013-01-26 04:27:00,20.3,18.1,30.06,North,9,0.0,5.0,91,0.00,,,0.00,Wunderground v.1.15,2013-01-26 09:27:00,
2013-01-26 04:29:00,20.2,18.0,30.07,North,0,1.0,-999.0,91,0.00,,,0.00,Wunderground v.1.15,2013-01-26 09:29:00,
2013-01-26 04:30:00,20.2,18.0,30.07,North,0,1.0,-999.0,91,0.00,,,0.00,Wunderground v.1.15,2013-01-26 09:30:00,
2013-01-26 04:32:00,20.2,18.0,30.06,NNE,22,0.0,6.0,91,0.00,,,0.00,Wunderground v.1.15,2013-01-26 09:32:00,
2013-01-26 04:34:00,20.2,18.0,30.07,North,0,1.0,-999.0,91,0.00,,,0.00,Wunderground v.1.15,2013-01-26 09:34:00,
2013-01-26 04:35:00,20.2,18.0,30.07,North,0,1.0,-999.0,91,0.00,,,0.00,Wunderground v.1.15,2013-01-26 09:35:00,
2013-01-26 04:37:00,20.2,18.0,30.06,NNE,19,1.0,6.0,91,0.00,,,0.00,Wunderground v.1.15,2013-01-26 09:37:00,
2013-01-26 04:39:00,20.2,18.0,30.07,North,0,1.0,-999.0,91,0.00,,,0.00,Wunderground v.1.15,2013-01-26 09:39:00,
2013-01-26 04:40:00,20.2,18.0,30.07,North,0,1.0,-999.0,91,0.00,,,0.00,Wunderground v.1.15,2013-01-26 09:40:00,
2013-01-26 04:42:00,20.2,18.0,30.07,NNE,21,2.0,2.0,91,0.00,,,0.00,Wunderground v.1.15,2013-01-26 09:42:00,
2013-01-26 04:44:00,20.2,18.0,30.07,North,0,1.0,-999.0,91,0.00,,,0.00,Wunderground v.1.15,2013-01-26 09:44:00,
2013-01-26 04:45:00,20.1,17.6,30.08,NNE,23,1.0,-999.0,90,0.00,,,0.00,Wunderground v.1.15,2013-01-26 09:45:00,
2013-01-26 04:47:00,20.2,18.0,30.07,NNE,15,1.0,5.0,91,0.00,,,0.00,Wunderground v.1.15,2013-01-26 09:47:00,
2013-01-26 04:49:00,20.1,17.6,30.08,NNE,23,1.0,-999.0,90,0.00,,,0.00,Wunderground v.1.15,2013-01-26 09:49:00,
2013-01-26 04:50:00,20.1,17.6,30.08,NNE,23,1.0,-999.0,90,0.00,,,0.00,Wunderground v.1.15,2013-01-26 09:50:00,
2013-01-26 04:52:00,20.2,18.0,30.07,NNE,27,0.0,5.0,91,0.00,,,0.00,Wunderground v.1.15,2013-01-26 09:52:00,
2013-01-26 04:54:00,20.1,17.6,30.08,NNE,23,1.0,-999.0,90,0.00,,,0.00,Wunderground v.1.15,2013-01-26 09:54:00,
2013-01-26 04:55:00,20.1,17.6,30.08,NNE,23,1.0,-999.0,90,0.00,,,0.00,Wunderground v.1.15,2013-01-26 09:55:00,
2013-01-26 04:57:00,20.2,17.7,30.08,North,5,0.0,5.0,90,0.00,,,0.00,Wunderground v.1.15,2013-01-26 09:57:00,
2013-01-26 04:59:00,20.1,17.6,30.08,NNE,23,1.0,-999.0,90,0.00,,,0.00,Wunderground v.1.15,2013-01-26 09:59:00,
2013-01-26 05:00:00,20.1,17.6,30.08,NNE,23,1.0,-999.0,90,0.00,,,0.00,Wunderground v.1.15,2013-01-26 10:00:00,
2013-01-26 05:02:00,20.2,17.7,30.08,NNE,14,0.0,2.0,90,0.00,,,0.00,Wunderground v.1.15,2013-01-26 10:02:00,
2013-01-26 05:04:00,20.1,17.6,30.08,NNE,23,1.0,-999.0,90,0.00,,,0.00,Wunderground v.1.15,2013-01-26 10:04:00,
2013-01-26 05:05:00,20.1,17.6,30.08,NNE,23,1.0,-999.0,90,0.00,,,0.00,Wunderground v.1.15,2013-01-26 10:05:00,
2013-01-26 05:07:00,20.2,18.0,30.08,North,5,0.0,5.0,91,0.00,,,0.00,Wunderground v.1.15,2013-01-26 10:07:00,
2013-01-26 05:09:00,20.1,17.6,30.08,NNE,23,1.0,-999.0,90,0.00,,,0.00,Wunderground v.1.15,2013-01-26 10:09:00,
2013-01-26 05:10:00,20.1,17.6,30.08,NNE,23,1.0,-999.0,90,0.00,,,0.00,Wunderground v.1.15,2013-01-26 10:10:00,
2013-01-26 05:12:00,20.1,17.6,30.08,NNE,24,0.0,2.0,90,0.00,,,0.00,Wunderground v.1.15,2013-01-26 10:12:00,
2013-01-26 05:14:00,20.1,17.6,30.08,NNE,23,1.0,-999.0,90,0.00,,,0.00,Wunderground v.1.15,2013-01-26 10:14:00,
2013-01-26 05:15:00,20.1,17.6,30.08,NNE,23,1.0,-999.0,90,0.00,,,0.00,Wunderground v.1.15,2013-01-26 10:15:00,
2013-01-26 05:17:00,20.1,17.6,30.08,NNE,13,0.0,6.0,90,0.00,,,0.00,Wunderground v.1.15,2013-01-26 10:17:00,
2013-01-26 05:19:00,20.1,17.6,30.08,NNE,23,1.0,-999.0,90,0.00,,,0.00,Wunderground v.1.15,2013-01-26 10:19:00,
2013-01-26 05:20:00,20.1,17.6,30.08,NNE,23,1.0,-999.0,90,0.00,,,0.00,Wunderground v.1.15,2013-01-26 10:20:00,
2013-01-26 05:22:00,20.1,17.6,30.08,NNE,19,1.0,2.0,90,0.00,,,0.00,Wunderground v.1.15,2013-01-26 10:22:00,
2013-01-26 05:24:00,20.1,17.6,30.08,NNE,23,1.0,-999.0,90,0.00,,,0.00,Wunderground v.1.15,2013-01-26 10:24:00,
2013-01-26 05:25:00,20.1,17.6,30.08,NNE,23,1.0,-999.0,90,0.00,,,0.00,Wunderground v.1.15,2013-01-26 10:25:00,
2013-01-26 05:27:00,20.1,17.6,30.08,NNE,24,1.0,3.0,90,0.00,,,0.00,Wunderground v.1.15,2013-01-26 10:27:00,
2013-01-26 05:29:00,20.1,17.6,30.08,NNE,23,1.0,-999.0,90,0.00,,,0.00,Wunderground v.1.15,2013-01-26 10:29:00,
2013-01-26 05:30:00,20.1,17.6,30.08,NNE,23,1.0,-999.0,90,0.00,,,0.00,Wunderground v.1.15,2013-01-26 10:30:00,
2013-01-26 05:32:00,20.1,17.6,30.08,NNE,19,0.0,5.0,90,0.00,,,0.00,Wunderground v.1.15,2013-01-26 10:32:00,
2013-01-26 05:34:00,20.1,17.6,30.08,NNE,23,1.0,-999.0,90,0.00,,,0.00,Wunderground v.1.15,2013-01-26 10:34:00,
2013-01-26 05:35:00,20.1,17.6,30.08,NNE,23,1.0,-999.0,90,0.00,,,0.00,Wunderground v.1.15,2013-01-26 10:35:00,
2013-01-26 05:37:00,20.1,17.6,30.08,NNE,23,0.0,5.0,90,0.00,,,0.00,Wunderground v.1.15,2013-01-26 10:37:00,
2013-01-26 05:39:00,20.1,17.6,30.08,NNE,23,1.0,-999.0,90,0.00,,,0.00,Wunderground v.1.15,2013-01-26 10:39:00,
2013-01-26 05:40:00,20.1,17.6,30.08,NNE,23,1.0,-999.0,90,0.00,,,0.00,Wunderground v.1.15,2013-01-26 10:40:00,
2013-01-26 05:42:00,20.0,17.5,30.08,NNE,21,1.0,1.0,90,0.00,,,0.00,Wunderground v.1.15,2013-01-26 10:42:00,
2013-01-26 05:44:00,20.1,17.6,30.08,NNE,23,1.0,-999.0,90,0.00,,,0.00,Wunderground v.1.15,2013-01-26 10:44:00,
2013-01-26 05:45:00,20.0,17.3,30.11,NNE,23,1.0,-999.0,89,0.00,,,0.00,Wunderground v.1.15,2013-01-26 10:45:00,
2013-01-26 05:47:00,20.0,17.5,30.08,NNE,24,3.0,5.0,90,0.00,,,0.00,Wunderground v.1.15,2013-01-26 10:47:00,
2013-01-26 05:49:00,20.0,17.3,30.11,NNE,23,1.0,-999.0,89,0.00,,,0.00,Wunderground v.1.15,2013-01-26 10:49:00,
2013-01-26 05:50:00,20.0,17.3,30.11,NNE,23,1.0,-999.0,89,0.00,,,0.00,Wunderground v.1.15,2013-01-26 10:50:00,
2013-01-26 05:52:00,20.0,17.5,30.08,NNE,24,0.0,1.0,90,0.00,,,0.00,Wunderground v.1.15,2013-01-26 10:52:00,
2013-01-26 05:54:00,20.0,17.3,30.11,NNE,23,1.0,-999.0,89,0.00,,,0.00,Wunderground v.1.15,2013-01-26 10:54:00,
2013-01-26 05:55:00,20.0,17.3,30.11,NNE,23,1.0,-999.0,89,0.00,,,0.00,Wunderground v.1.15,2013-01-26 10:55:00,
2013-01-26 05:57:00,20.0,17.5,30.09,NNE,29,0.0,2.0,90,0.00,,,0.00,Wunderground v.1.15,2013-01-26 10:57:00,
2013-01-26 05:59:00,20.0,17.3,30.11,NNE,23,1.0,-999.0,89,0.00,,,0.00,Wunderground v.1.15,2013-01-26 10:59:00,
2013-01-26 06:00:00,20.0,17.3,30.11,NNE,23,1.0,-999.0,89,0.00,,,0.00,Wunderground v.1.15,2013-01-26 11:00:00,
2013-01-26 06:02:00,20.0,17.5,30.09,NNE,32,0.0,1.0,90,0.00,,,0.00,Wunderground v.1.15,2013-01-26 11:02:00,
2013-01-26 06:04:00,20.0,17.3,30.11,NNE,23,1.0,-999.0,89,0.00,,,0.00,Wunderground v.1.15,2013-01-26 11:04:00,
2013-01-26 06:05:00,20.0,17.3,30.11,NNE,23,1.0,-999.0,89,0.00,,,0.00,Wunderground v.1.15,2013-01-26 11:05:00,
2013-01-26 06:07:00,20.0,17.3,30.09,NE,43,0.0,5.0,89,0.00,,,0.00,Wunderground v.1.15,2013-01-26 11:07:00,
2013-01-26 06:09:00,20.0,17.3,30.11,NNE,23,1.0,-999.0,89,0.00,,,0.00,Wunderground v.1.15,2013-01-26 11:09:00,
2013-01-26 06:10:00,20.0,17.3,30.11,NNE,23,1.0,-999.0,89,0.00,,,0.00,Wunderground v.1.15,2013-01-26 11:10:00,
2013-01-26 06:12:00,20.0,17.3,30.11,NNE,20,0.0,6.0,89,0.00,,,0.00,Wunderground v.1.15,2013-01-26 11:12:00,
2013-01-26 06:14:00,20.0,17.3,30.11,NNE,23,1.0,-999.0,89,0.00,,,0.00,Wunderground v.1.15,2013-01-26 11:14:00,
2013-01-26 06:15:00,20.0,17.3,30.12,NNE,23,1.0,-999.0,89,0.00,,,0.00,Wunderground v.1.15,2013-01-26 11:15:00,
2013-01-26 06:17:00,20.0,17.3,30.11,North,11,0.0,6.0,89,0.00,,,0.00,Wunderground v.1.15,2013-01-26 11:17:00,
2013-01-26 06:19:00,20.0,17.3,30.12,NNE,23,1.0,-999.0,89,0.00,,,0.00,Wunderground v.1.15,2013-01-26 11:19:00,
2013-01-26 06:20:00,20.0,17.3,30.12,NNE,23,1.0,-999.0,89,0.00,,,0.00,Wunderground v.1.15,2013-01-26 11:20:00,
2013-01-26 06:22:00,20.0,17.3,30.11,NNE,30,0.0,2.0,89,0.00,,,0.00,Wunderground v.1.15,2013-01-26 11:22:00,
2013-01-26 06:24:00,20.0,17.3,30.12,NNE,23,1.0,-999.0,89,0.00,,,0.00,Wunderground v.1.15,2013-01-26 11:24:00,
2013-01-26 06:25:00,20.0,17.3,30.12,NNE,23,1.0,-999.0,89,0.00,,,0.00,Wunderground v.1.15,2013-01-26 11:25:00,
2013-01-26 06:27:00,20.0,17.3,30.11,NNE,30,1.0,3.0,89,0.00,,,0.00,Wunderground v.1.15,2013-01-26 11:27:00,
2013-01-26 06:29:00,20.0,17.3,30.12,NNE,23,1.0,-999.0,89,0.00,,,0.00,Wunderground v.1.15,2013-01-26 11:29:00,
2013-01-26 06:30:00,20.0,17.3,30.12,NNE,23,1.0,-999.0,89,0.00,,,0.00,Wunderground v.1.15,2013-01-26 11:30:00,
2013-01-26 06:32:00,20.0,17.3,30.11,NNE,32,4.0,5.0,89,0.00,,,0.00,Wunderground v.1.15,2013-01-26 11:32:00,
2013-01-26 06:34:00,20.0,17.3,30.12,NNE,23,1.0,-999.0,89,0.00,,,0.00,Wunderground v.1.15,2013-01-26 11:34:00,
2013-01-26 06:35:00,20.0,17.3,30.12,NNE,23,1.0,-999.0,89,0.00,,,0.00,Wunderground v.1.15,2013-01-26 11:35:00,
2013-01-26 06:37:00,20.0,17.5,30.11,NNE,33,0.0,6.0,90,0.00,,,0.00,Wunderground v.1.15,2013-01-26 11:37:00,
2013-01-26 06:39:00,20.0,17.3,30.12,NNE,23,1.0,-999.0,89,0.00,,,0.00,Wunderground v.1.15,2013-01-26 11:39:00,
2013-01-26 06:40:00,20.0,17.3,30.12,NNE,23,1.0,-999.0,89,0.00,,,0.00,Wunderground v.1.15,2013-01-26 11:40:00,
2013-01-26 06:42:00,20.0,17.3,30.12,NE,36,1.0,5.0,89,0.00,,,0.00,Wunderground v.1.15,2013-01-26 11:42:00,
2013-01-26 06:44:00,20.0,17.3,30.12,NNE,23,1.0,-999.0,89,0.00,,,0.00,Wunderground v.1.15,2013-01-26 11:44:00,
2013-01-26 06:45:00,19.9,17.2,30.14,NE,45,1.0,-999.0,89,0.00,,,0.00,Wunderground v.1.15,2013-01-26 11:45:00,
2013-01-26 06:47:00,19.9,17.2,30.12,NE,36,2.0,5.0,89,0.00,,,0.00,Wunderground v.1.15,2013-01-26 11:47:00,
2013-01-26 06:49:00,19.9,17.2,30.14,NE,45,1.0,-999.0,89,0.00,,,0.00,Wunderground v.1.15,2013-01-26 11:49:00,
2013-01-26 06:50:00,19.9,17.2,30.14,NE,45,1.0,-999.0,89,0.00,,,0.00,Wunderground v.1.15,2013-01-26 11:50:00,
2013-01-26 06:52:00,19.9,17.2,30.12,NE,40,0.0,2.0,89,0.00,,,0.00,Wunderground v.1.15,2013-01-26 11:52:00,
2013-01-26 06:54:00,19.9,17.2,30.14,NE,45,1.0,-999.0,89,0.00,,,0.00,Wunderground v.1.15,2013-01-26 11:54:00,
2013-01-26 06:55:00,19.9,17.2,30.14,NE,45,1.0,-999.0,89,0.00,,,0.00,Wunderground v.1.15,2013-01-26 11:55:00,
2013-01-26 06:57:00,19.9,17.2,30.13,NE,40,0.0,4.0,89,0.00,,,0.00,Wunderground v.1.15,2013-01-26 11:57:00,
2013-01-26 06:59:00,19.9,17.2,30.14,NE,45,1.0,-999.0,89,0.00,,,0.00,Wunderground v.1.15,2013-01-26 11:59:00,
2013-01-26 07:00:00,19.9,17.2,30.14,NE,45,1.0,-999.0,89,0.00,,,0.00,Wunderground v.1.15,2013-01-26 12:00:00,
2013-01-26 07:02:00,19.9,17.2,30.13,NE,39,0.0,2.0,89,0.00,,,0.00,Wunderground v.1.15,2013-01-26 12:02:00,
2013-01-26 07:04:00,19.9,17.2,30.14,NE,45,1.0,-999.0,89,0.00,,,0.00,Wunderground v.1.15,2013-01-26 12:04:00,
2013-01-26 07:05:00,19.9,17.2,30.14,NE,45,1.0,-999.0,89,0.00,,,0.00,Wunderground v.1.15,2013-01-26 12:05:00,
2013-01-26 07:07:00,19.9,17.2,30.13,NE,37,0.0,4.0,89,0.00,,,0.00,Wunderground v.1.15,2013-01-26 12:07:00,
2013-01-26 07:09:00,19.9,17.2,30.14,NE,45,1.0,-999.0,89,0.00,,,0.00,Wunderground v.1.15,2013-01-26 12:09:00,
2013-01-26 07:10:00,19.9,17.2,30.14,NE,45,1.0,-999.0,89,0.00,,,0.00,Wunderground v.1.15,2013-01-26 12:10:00,
2013-01-26 07:12:00,19.9,17.2,30.14,North,5,0.0,4.0,89,0.00,,,0.00,Wunderground v.1.15,2013-01-26 12:12:00,
2013-01-26 07:14:00,19.9,17.2,30.14,NE,45,1.0,-999.0,89,0.00,,,0.00,Wunderground v.1.15,2013-01-26 12:14:00,
2013-01-26 07:15:00,19.8,17.1,30.15,North,0,1.0,-999.0,89,0.00,,,0.00,Wunderground v.1.15,2013-01-26 12:15:00,
2013-01-26 07:17:00,19.8,17.1,30.15,North,0,1.0,-999.0,89,0.00,,,0.00,Wunderground v.1.15,2013-01-26 12:17:00,
2013-01-26 07:18:00,19.9,17.2,30.14,North,5,0.0,4.0,89,0.00,,,0.00,Wunderground v.1.15,2013-01-26 12:18:00,
2013-01-26 07:19:00,19.8,17.1,30.15,North,0,1.0,-999.0,89,0.00,,,0.00,Wunderground v.1.15,2013-01-26 12:19:00,
2013-01-26 07:20:00,19.8,17.1,30.15,North,0,1.0,-999.0,89,0.00,,,0.00,Wunderground v.1.15,2013-01-26 12:20:00,
2013-01-26 07:22:00,19.8,17.1,30.15,North,0,1.0,-999.0,89,0.00,,,0.00,Wunderground v.1.15,2013-01-26 12:22:00,
2013-01-26 07:23:00,19.9,17.2,30.14,North,9,0.0,4.0,89,0.00,,,0.00,Wunderground v.1.15,2013-01-26 12:23:00,
2013-01-26 07:24:00,19.8,17.1,30.15,North,0,1.0,-999.0,89,0.00,,,0.00,Wunderground v.1.15,2013-01-26 12:24:00,
2013-01-26 07:25:00,19.8,17.1,30.15,North,0,1.0,-999.0,89,0.00,,,0.00,Wunderground v.1.15,2013-01-26 12:25:00,
2013-01-26 07:27:00,19.8,17.1,30.15,North,0,1.0,-999.0,89,0.00,,,0.00,Wunderground v.1.15,2013-01-26 12:27:00,
2013-01-26 07:28:00,19.9,17.2,30.14,North,9,0.0,4.0,89,0.00,,,0.00,Wunderground v.1.15,2013-01-26 12:28:00,
2013-01-26 07:29:00,19.8,17.1,30.15,North,0,1.0,-999.0,89,0.00,,,0.00,Wunderground v.1.15,2013-01-26 12:29:00,
2013-01-26 07:30:00,19.8,17.1,30.15,North,0,1.0,-999.0,89,0.00,,,0.00,Wunderground v.1.15,2013-01-26 12:30:00,
2013-01-26 07:32:00,19.8,17.1,30.15,North,0,1.0,-999.0,89,0.00,,,0.00,Wunderground v.1.15,2013-01-26 12:32:00,
2013-01-26 07:33:00,19.8,17.1,30.14,North,9,1.0,1.0,89,0.00,,,0.00,Wunderground v.1.15,2013-01-26 12:33:00,
2013-01-26 07:34:00,19.8,17.1,30.15,North,0,1.0,-999.0,89,0.00,,,0.00,Wunderground v.1.15,2013-01-26 12:34:00,
2013-01-26 07:35:00,19.8,17.1,30.15,North,0,1.0,-999.0,89,0.00,,,0.00,Wunderground v.1.15,2013-01-26 12:35:00,
2013-01-26 07:37:00,19.8,17.1,30.15,North,0,1.0,-999.0,89,0.00,,,0.00,Wunderground v.1.15,2013-01-26 12:37:00,
2013-01-26 07:38:00,19.8,17.1,30.14,NNE,15,0.0,6.0,89,0.00,,,0.00,Wunderground v.1.15,2013-01-26 12:38:00,
2013-01-26 07:39:00,19.8,17.1,30.15,North,0,1.0,-999.0,89,0.00,,,0.00,Wunderground v.1.15,2013-01-26 12:39:00,
2013-01-26 07:40:00,19.8,17.1,30.15,North,0,1.0,-999.0,89,0.00,,,0.00,Wunderground v.1.15,2013-01-26 12:40:00,
2013-01-26 07:42:00,19.8,17.1,30.15,North,0,1.0,-999.0,89,0.00,,,0.00,Wunderground v.1.15,2013-01-26 12:42:00,
2013-01-26 07:43:00,19.8,17.1,30.15,NNE,15,0.0,2.0,89,0.00,,,0.00,Wunderground v.1.15,2013-01-26 12:43:00,
2013-01-26 07:44:00,19.8,17.1,30.15,North,0,1.0,-999.0,89,0.00,,,0.00,Wunderground v.1.15,2013-01-26 12:44:00,
2013-01-26 07:45:00,19.7,17.0,30.15,NNE,23,0.0,-999.0,89,0.00,,,0.00,Wunderground v.1.15,2013-01-26 12:45:00,
2013-01-26 07:47:00,19.7,17.0,30.15,NNE,23,0.0,-999.0,89,0.00,,,0.00,Wunderground v.1.15,2013-01-26 12:47:00,
2013-01-26 07:48:00,19.8,17.1,30.15,NNE,22,4.0,6.0,89,0.00,,,0.00,Wunderground v.1.15,2013-01-26 12:48:00,
2013-01-26 07:49:00,19.7,17.0,30.15,NNE,23,0.0,-999.0,89,0.00,,,0.00,Wunderground v.1.15,2013-01-26 12:49:00,
2013-01-26 07:50:00,19.7,17.0,30.15,NNE,23,0.0,-999.0,89,0.00,,,0.00,Wunderground v.1.15,2013-01-26 12:50:00,
2013-01-26 07:52:00,19.7,17.0,30.15,NNE,23,0.0,-999.0,89,0.00,,,0.00,Wunderground v.1.15,2013-01-26 12:52:00,
2013-01-26 07:53:00,19.8,17.1,30.15,NNE,29,0.0,2.0,89,0.00,,,0.00,Wunderground v.1.15,2013-01-26 12:53:00,
2013-01-26 07:54:00,19.7,17.0,30.15,NNE,23,0.0,-999.0,89,0.00,,,0.00,Wunderground v.1.15,2013-01-26 12:54:00,
2013-01-26 07:55:00,19.7,17.0,30.15,NNE,23,0.0,-999.0,89,0.00,,,0.00,Wunderground v.1.15,2013-01-26 12:55:00,
2013-01-26 07:57:00,19.7,17.0,30.15,NNE,23,0.0,-999.0,89,0.00,,,0.00,Wunderground v.1.15,2013-01-26 12:57:00,
2013-01-26 07:58:00,19.7,17.0,30.15,NNE,29,0.0,2.0,89,0.00,,,0.00,Wunderground v.1.15,2013-01-26 12:58:00,
2013-01-26 07:59:00,19.7,17.0,30.15,NNE,23,0.0,-999.0,89,0.00,,,0.00,Wunderground v.1.15,2013-01-26 12:59:00,
2013-01-26 08:00:00,19.7,17.0,30.15,NNE,23,0.0,-999.0,89,0.00,,,0.00,Wunderground v.1.15,2013-01-26 13:00:00,
2013-01-26 08:02:00,19.7,17.0,30.15,NNE,23,0.0,-999.0,89,0.00,,,0.00,Wunderground v.1.15,2013-01-26 13:02:00,
2013-01-26 08:03:00,19.7,17.0,30.15,NNE,29,0.0,1.0,89,0.00,,,0.00,Wunderground v.1.15,2013-01-26 13:03:00,
2013-01-26 08:04:00,19.7,17.0,30.15,NNE,23,0.0,-999.0,89,0.00,,,0.00,Wunderground v.1.15,2013-01-26 13:04:00,
2013-01-26 08:05:00,19.7,17.0,30.15,NNE,23,0.0,-999.0,89,0.00,,,0.00,Wunderground v.1.15,2013-01-26 13:05:00,
2013-01-26 08:07:00,19.7,17.0,30.15,NNE,23,0.0,-999.0,89,0.00,,,0.00,Wunderground v.1.15,2013-01-26 13:07:00,
2013-01-26 08:08:00,19.7,17.0,30.15,NNE,29,0.0,3.0,89,0.00,,,0.00,Wunderground v.1.15,2013-01-26 13:08:00,
2013-01-26 08:09:00,19.7,17.0,30.15,NNE,23,0.0,-999.0,89,0.00,,,0.00,Wunderground v.1.15,2013-01-26 13:09:00,
2013-01-26 08:10:00,19.7,17.0,30.15,NNE,23,0.0,-999.0,89,0.00,,,0.00,Wunderground v.1.15,2013-01-26 13:10:00,
2013-01-26 08:12:00,19.7,17.0,30.15,NNE,23,0.0,-999.0,89,0.00,,,0.00,Wunderground v.1.15,2013-01-26 13:12:00,
2013-01-26 08:13:00,19.7,17.0,30.15,NNE,29,0.0,2.0,89,0.00,,,0.00,Wunderground v.1.15,2013-01-26 13:13:00,
2013-01-26 08:14:00,19.7,17.0,30.15,NNE,23,0.0,-999.0,89,0.00,,,0.00,Wunderground v.1.15,2013-01-26 13:14:00,
2013-01-26 08:15:00,19.8,17.3,30.16,NNE,23,0.0,-999.0,90,0.00,,,0.00,Wunderground v.1.15,2013-01-26 13:15:00,
2013-01-26 08:17:00,19.8,17.3,30.16,NNE,23,0.0,-999.0,90,0.00,,,0.00,Wunderground v.1.15,2013-01-26 13:17:00,
2013-01-26 08:18:00,19.7,17.0,30.15,NNE,29,0.0,3.0,89,0.00,,,0.00,Wunderground v.1.15,2013-01-26 13:18:00,
2013-01-26 08:19:00,19.8,17.3,30.16,NNE,23,0.0,-999.0,90,0.00,,,0.00,Wunderground v.1.15,2013-01-26 13:19:00,
2013-01-26 08:20:00,19.8,17.3,30.16,NNE,23,0.0,-999.0,90,0.00,,,0.00,Wunderground v.1.15,2013-01-26 13:20:00,
2013-01-26 08:22:00,19.8,17.3,30.16,NNE,23,0.0,-999.0,90,0.00,,,0.00,Wunderground v.1.15,2013-01-26 13:22:00,
2013-01-26 08:23:00,19.7,17.2,30.16,NNE,29,0.0,5.0,90,0.00,,,0.00,Wunderground v.1.15,2013-01-26 13:23:00,
2013-01-26 08:24:00,19.8,17.3,30.16,NNE,23,0.0,-999.0,90,0.00,,,0.00,Wunderground v.1.15,2013-01-26 13:24:00,
2013-01-26 08:25:00,19.8,17.3,30.16,NNE,23,0.0,-999.0,90,0.00,,,0.00,Wunderground v.1.15,2013-01-26 13:25:00,
2013-01-26 08:27:00,19.8,17.3,30.16,NNE,23,0.0,-999.0,90,0.00,,,0.00,Wunderground v.1.15,2013-01-26 13:27:00,
2013-01-26 08:28:00,19.7,17.2,30.16,NNE,29,0.0,5.0,90,0.00,,,0.00,Wunderground v.1.15,2013-01-26 13:28:00,
2013-01-26 08:29:00,19.8,17.3,30.16,NNE,23,0.0,-999.0,90,0.00,,,0.00,Wunderground v.1.15,2013-01-26 13:29:00,
2013-01-26 08:30:00,19.8,17.3,30.16,NNE,23,0.0,-999.0,90,0.00,,,0.00,Wunderground v.1.15,2013-01-26 13:30:00,
2013-01-26 08:32:00,19.8,17.3,30.16,NNE,23,0.0,-999.0,90,0.00,,,0.00,Wunderground v.1.15,2013-01-26 13:32:00,
2013-01-26 08:33:00,19.8,17.3,30.16,NNE,29,0.0,2.0,90,0.00,,,0.00,Wunderground v.1.15,2013-01-26 13:33:00,
2013-01-26 08:34:00,19.8,17.3,30.16,NNE,23,0.0,-999.0,90,0.00,,,0.00,Wunderground v.1.15,2013-01-26 13:34:00,
2013-01-26 08:35:00,19.8,17.3,30.16,NNE,23,0.0,-999.0,90,0.00,,,0.00,Wunderground v.1.15,2013-01-26 13:35:00,
2013-01-26 08:37:00,19.8,17.3,30.16,NNE,23,0.0,-999.0,90,0.00,,,0.00,Wunderground v.1.15,2013-01-26 13:37:00,
2013-01-26 08:39:00,19.8,17.3,30.16,NNE,29,0.0,4.0,90,0.00,,,0.00,Wunderground v.1.15,2013-01-26 13:39:00,
2013-01-26 08:40:00,19.8,17.3,30.16,NNE,23,0.0,-999.0,90,0.00,,,0.00,Wunderground v.1.15,2013-01-26 13:40:00,
2013-01-26 08:42:00,19.8,17.3,30.16,NNE,23,0.0,-999.0,90,0.00,,,0.00,Wunderground v.1.15,2013-01-26 13:42:00,
2013-01-26 08:43:00,19.8,17.3,30.16,NNE,28,0.0,5.0,90,0.00,,,0.00,Wunderground v.1.15,2013-01-26 13:43:00,
2013-01-26 08:44:00,19.8,17.3,30.16,NNE,23,0.0,-999.0,90,0.00,,,0.00,Wunderground v.1.15,2013-01-26 13:44:00,
2013-01-26 08:45:00,20.0,17.3,30.17,NNE,23,0.0,-999.0,89,0.00,,,0.00,Wunderground v.1.15,2013-01-26 13:45:00,
2013-01-26 08:47:00,20.0,17.3,30.17,NNE,23,0.0,-999.0,89,0.00,,,0.00,Wunderground v.1.15,2013-01-26 13:47:00,
2013-01-26 08:49:00,19.8,17.3,30.16,NNE,28,0.0,5.0,90,0.00,,,0.00,Wunderground v.1.15,2013-01-26 13:49:00,
2013-01-26 08:50:00,20.0,17.3,30.17,NNE,23,0.0,-999.0,89,0.00,,,0.00,Wunderground v.1.15,2013-01-26 13:50:00,
2013-01-26 08:52:00,20.0,17.3,30.17,NNE,23,0.0,-999.0,89,0.00,,,0.00,Wunderground v.1.15,2013-01-26 13:52:00,
2013-01-26 08:54:00,19.9,17.2,30.17,NNE,28,2.0,2.0,89,0.00,,,0.00,Wunderground v.1.15,2013-01-26 13:54:00,
2013-01-26 08:55:00,20.0,17.3,30.17,NNE,23,0.0,-999.0,89,0.00,,,0.00,Wunderground v.1.15,2013-01-26 13:55:00,
2013-01-26 08:57:00,20.0,17.3,30.17,NNE,23,0.0,-999.0,89,0.00,,,0.00,Wunderground v.1.15,2013-01-26 13:57:00,
2013-01-26 08:59:00,20.0,17.3,30.17,NNW,341,0.0,5.0,89,0.00,,,0.00,Wunderground v.1.15,2013-01-26 13:59:00,
2013-01-26 09:00:00,20.0,17.3,30.17,NNE,23,0.0,-999.0,89,0.00,,,0.00,Wunderground v.1.15,2013-01-26 14:00:00,
2013-01-26 09:02:00,20.0,17.3,30.17,NNE,23,0.0,-999.0,89,0.00,,,0.00,Wunderground v.1.15,2013-01-26 14:02:00,
2013-01-26 09:04:00,20.0,17.3,30.17,NNW,344,1.0,4.0,89,0.00,,,0.00,Wunderground v.1.15,2013-01-26 14:04:00,
2013-01-26 09:05:00,20.0,17.3,30.17,NNE,23,0.0,-999.0,89,0.00,,,0.00,Wunderground v.1.15,2013-01-26 14:05:00,
2013-01-26 09:07:00,20.0,17.3,30.17,NNE,23,0.0,-999.0,89,0.00,,,0.00,Wunderground v.1.15,2013-01-26 14:07:00,
2013-01-26 09:09:00,20.0,17.3,30.17,NNW,345,0.0,4.0,89,0.00,,,0.00,Wunderground v.1.15,2013-01-26 14:09:00,
2013-01-26 09:10:00,20.0,17.3,30.17,NNE,23,0.0,-999.0,89,0.00,,,0.00,Wunderground v.1.15,2013-01-26 14:10:00,
2013-01-26 09:12:00,20.0,17.3,30.17,NNE,23,0.0,-999.0,89,0.00,,,0.00,Wunderground v.1.15,2013-01-26 14:12:00,
2013-01-26 09:14:00,20.1,17.4,30.17,North,360,3.0,6.0,89,0.00,,,0.00,Wunderground v.1.15,2013-01-26 14:14:00,
2013-01-26 09:15:00,20.5,17.5,30.19,North,0,1.0,-999.0,88,0.00,,,0.00,Wunderground v.1.15,2013-01-26 14:15:00,
2013-01-26 09:17:00,20.5,17.5,30.19,North,0,1.0,-999.0,88,0.00,,,0.00,Wunderground v.1.15,2013-01-26 14:17:00,
2013-01-26 09:19:00,20.2,17.5,30.17,North,360,1.0,6.0,89,0.00,,,0.00,Wunderground v.1.15,2013-01-26 14:19:00,
2013-01-26 09:20:00,20.5,17.5,30.19,North,0,1.0,-999.0,88,0.00,,,0.00,Wunderground v.1.15,2013-01-26 14:20:00,
2013-01-26 09:22:00,20.5,17.5,30.19,North,0,1.0,-999.0,88,0.00,,,0.00,Wunderground v.1.15,2013-01-26 14:22:00,
2013-01-26 09:24:00,20.3,17.6,30.18,NNE,13,0.0,4.0,89,0.00,,,0.00,Wunderground v.1.15,2013-01-26 14:24:00,
2013-01-26 09:25:00,20.5,17.5,30.19,North,0,1.0,-999.0,88,0.00,,,0.00,Wunderground v.1.15,2013-01-26 14:25:00,
2013-01-26 09:27:00,20.5,17.5,30.19,North,0,1.0,-999.0,88,0.00,,,0.00,Wunderground v.1.15,2013-01-26 14:27:00,
2013-01-26 09:29:00,20.4,17.4,30.18,NNE,18,0.0,7.0,88,0.00,,,0.00,Wunderground v.1.15,2013-01-26 14:29:00,
2013-01-26 09:30:00,20.5,17.5,30.19,North,0,1.0,-999.0,88,0.00,,,0.00,Wunderground v.1.15,2013-01-26 14:30:00,
2013-01-26 09:32:00,20.5,17.5,30.19,North,0,1.0,-999.0,88,0.00,,,0.00,Wunderground v.1.15,2013-01-26 14:32:00,
2013-01-26 09:34:00,20.4,17.4,30.18,NNE,12,0.0,4.0,88,0.00,,,0.00,Wunderground v.1.15,2013-01-26 14:34:00,
2013-01-26 09:35:00,20.5,17.5,30.19,North,0,1.0,-999.0,88,0.00,,,0.00,Wunderground v.1.15,2013-01-26 14:35:00,
2013-01-26 09:37:00,20.5,17.5,30.19,North,0,1.0,-999.0,88,0.00,,,0.00,Wunderground v.1.15,2013-01-26 14:37:00,
2013-01-26 09:39:00,20.5,17.5,30.19,NNE,19,0.0,5.0,88,0.00,,,0.00,Wunderground v.1.15,2013-01-26 14:39:00,
2013-01-26 09:40:00,20.5,17.5,30.19,North,0,1.0,-999.0,88,0.00,,,0.00,Wunderground v.1.15,2013-01-26 14:40:00,
2013-01-26 09:42:00,20.5,17.5,30.19,North,0,1.0,-999.0,88,0.00,,,0.00,Wunderground v.1.15,2013-01-26 14:42:00,
2013-01-26 09:44:00,20.6,17.6,30.19,NNE,15,4.0,4.0,88,0.00,,,0.00,Wunderground v.1.15,2013-01-26 14:44:00,
2013-01-26 09:45:00,20.7,17.2,30.21,North,0,1.0,-999.0,86,0.00,,,0.00,Wunderground v.1.15,2013-01-26 14:45:00,
2013-01-26 09:47:00,20.7,17.2,30.21,North,0,1.0,-999.0,86,0.00,,,0.00,Wunderground v.1.15,2013-01-26 14:47:00,
2013-01-26 09:49:00,20.6,17.3,30.19,North,5,0.0,5.0,87,0.00,,,0.00,Wunderground v.1.15,2013-01-26 14:49:00,
2013-01-26 09:50:00,20.7,17.2,30.21,North,0,1.0,-999.0,86,0.00,,,0.00,Wunderground v.1.15,2013-01-26 14:50:00,
2013-01-26 09:52:00,20.7,17.2,30.21,North,0,1.0,-999.0,86,0.00,,,0.00,Wunderground v.1.15,2013-01-26 14:52:00,
2013-01-26 09:54:00,20.6,17.3,30.20,North,360,0.0,4.0,87,0.00,,,0.00,Wunderground v.1.15,2013-01-26 14:54:00,
2013-01-26 09:55:00,20.7,17.2,30.21,North,0,1.0,-999.0,86,0.00,,,0.00,Wunderground v.1.15,2013-01-26 14:55:00,
2013-01-26 09:57:00,20.7,17.2,30.21,North,0,1.0,-999.0,86,0.00,,,0.00,Wunderground v.1.15,2013-01-26 14:57:00,
2013-01-26 09:59:00,20.6,17.3,30.20,NNW,344,3.0,6.0,87,0.00,,,0.00,Wunderground v.1.15,2013-01-26 14:59:00,
2013-01-26 10:00:00,20.7,17.2,30.21,North,0,1.0,-999.0,86,0.00,,,0.00,Wunderground v.1.15,2013-01-26 15:00:00,
2013-01-26 10:02:00,20.7,17.2,30.21,North,0,1.0,-999.0,86,0.00,,,0.00,Wunderground v.1.15,2013-01-26 15:02:00,
2013-01-26 10:04:00,20.7,17.2,30.20,NNW,329,1.0,5.0,86,0.00,,,0.00,Wunderground v.1.15,2013-01-26 15:04:00,
2013-01-26 10:05:00,20.7,17.2,30.21,North,0,1.0,-999.0,86,0.00,,,0.00,Wunderground v.1.15,2013-01-26 15:05:00,
2013-01-26 10:07:00,20.7,17.2,30.21,North,0,1.0,-999.0,86,0.00,,,0.00,Wunderground v.1.15,2013-01-26 15:07:00,
2013-01-26 10:09:00,20.7,17.2,30.21,NNE,14,5.0,7.0,86,0.00,,,0.00,Wunderground v.1.15,2013-01-26 15:09:00,
2013-01-26 10:10:00,20.7,17.2,30.21,North,0,1.0,-999.0,86,0.00,,,0.00,Wunderground v.1.15,2013-01-26 15:10:00,
2013-01-26 10:12:00,20.7,17.2,30.21,North,0,1.0,-999.0,86,0.00,,,0.00,Wunderground v.1.15,2013-01-26 15:12:00,
2013-01-26 10:14:00,20.8,17.3,30.21,North,360,5.0,5.0,86,0.00,,,0.00,Wunderground v.1.15,2013-01-26 15:14:00,
2013-01-26 10:15:00,21.5,17.1,30.22,NNW,338,2.0,-999.0,83,0.00,,,0.00,Wunderground v.1.15,2013-01-26 15:15:00,
2013-01-26 10:17:00,21.5,17.1,30.22,NNW,338,2.0,-999.0,83,0.00,,,0.00,Wunderground v.1.15,2013-01-26 15:17:00,
2013-01-26 10:19:00,20.9,17.1,30.21,NW,305,7.0,7.0,85,0.00,,,0.00,Wunderground v.1.15,2013-01-26 15:19:00,
2013-01-26 10:20:00,21.5,17.1,30.22,NNW,338,2.0,-999.0,83,0.00,,,0.00,Wunderground v.1.15,2013-01-26 15:20:00,
2013-01-26 10:22:00,21.5,17.1,30.22,NNW,338,2.0,-999.0,83,0.00,,,0.00,Wunderground v.1.15,2013-01-26 15:22:00,
2013-01-26 10:24:00,20.9,17.1,30.22,NNW,335,0.0,3.0,85,0.00,,,0.00,Wunderground v.1.15,2013-01-26 15:24:00,
2013-01-26 10:25:00,21.5,17.1,30.22,NNW,338,2.0,-999.0,83,0.00,,,0.00,Wunderground v.1.15,2013-01-26 15:25:00,
2013-01-26 10:27:00,21.5,17.1,30.22,NNW,338,2.0,-999.0,83,0.00,,,0.00,Wunderground v.1.15,2013-01-26 15:27:00,
2013-01-26 10:29:00,20.9,16.8,30.22,NE,43,0.0,5.0,84,0.00,,,0.00,Wunderground v.1.15,2013-01-26 15:29:00,
2013-01-26 10:30:00,21.5,17.1,30.22,NNW,338,2.0,-999.0,83,0.00,,,0.00,Wunderground v.1.15,2013-01-26 15:30:00,
2013-01-26 10:32:00,21.5,17.1,30.22,NNW,338,2.0,-999.0,83,0.00,,,0.00,Wunderground v.1.15,2013-01-26 15:32:00,
2013-01-26 10:34:00,21.1,17.0,30.22,NNW,345,0.0,6.0,84,0.00,,,0.00,Wunderground v.1.15,2013-01-26 15:34:00,
2013-01-26 10:35:00,21.5,17.1,30.22,NNW,338,2.0,-999.0,83,0.00,,,0.00,Wunderground v.1.15,2013-01-26 15:35:00,
2013-01-26 10:37:00,21.5,17.1,30.22,NNW,338,2.0,-999.0,83,0.00,,,0.00,Wunderground v.1.15,2013-01-26 15:37:00,
2013-01-26 10:39:00,21.5,17.1,30.22,NNE,32,6.0,8.0,83,0.00,,,0.00,Wunderground v.1.15,2013-01-26 15:39:00,
2013-01-26 10:40:00,21.5,17.1,30.22,NNW,338,2.0,-999.0,83,0.00,,,0.00,Wunderground v.1.15,2013-01-26 15:40:00,
2013-01-26 10:42:00,21.5,17.1,30.22,NNW,338,2.0,-999.0,83,0.00,,,0.00,Wunderground v.1.15,2013-01-26 15:42:00,
2013-01-26 10:44:00,21.7,17.1,30.22,NNE,27,0.0,5.0,82,0.00,,,0.00,Wunderground v.1.15,2013-01-26 15:44:00,
2013-01-26 10:45:00,22.9,16.8,30.24,NNE,23,2.0,-999.0,77,0.00,,,0.00,Wunderground v.1.15,2013-01-26 15:45:00,
2013-01-26 10:47:00,22.9,16.8,30.24,NNE,23,2.0,-999.0,77,0.00,,,0.00,Wunderground v.1.15,2013-01-26 15:47:00,
2013-01-26 10:49:00,22.1,17.4,30.22,NE,37,1.0,9.0,82,0.00,,,0.00,Wunderground v.1.15,2013-01-26 15:49:00,
2013-01-26 10:50:00,22.9,16.8,30.24,NNE,23,2.0,-999.0,77,0.00,,,0.00,Wunderground v.1.15,2013-01-26 15:50:00,
2013-01-26 10:52:00,22.9,16.8,30.24,NNE,23,2.0,-999.0,77,0.00,,,0.00,Wunderground v.1.15,2013-01-26 15:52:00,
2013-01-26 10:54:00,22.5,17.5,30.23,NNE,28,0.0,7.0,81,0.00,,,0.00,Wunderground v.1.15,2013-01-26 15:54:00,
2013-01-26 10:55:00,22.9,16.8,30.24,NNE,23,2.0,-999.0,77,0.00,,,0.00,Wunderground v.1.15,2013-01-26 15:55:00,
2013-01-26 10:57:00,22.9,16.8,30.24,NNE,23,2.0,-999.0,77,0.00,,,0.00,Wunderground v.1.15,2013-01-26 15:57:00,
2013-01-26 10:59:00,22.7,17.2,30.23,NE,53,0.0,7.0,79,0.00,,,0.00,Wunderground v.1.15,2013-01-26 15:59:00,
2013-01-26 11:00:00,22.9,16.8,30.24,NNE,23,2.0,-999.0,77,0.00,,,0.00,Wunderground v.1.15,2013-01-26 16:00:00,
2013-01-26 11:02:00,22.9,16.8,30.24,NNE,23,2.0,-999.0,77,0.00,,,0.00,Wunderground v.1.15,2013-01-26 16:02:00,
2013-01-26 11:04:00,22.8,16.7,30.23,East,91,1.0,7.0,77,0.00,,,0.00,Wunderground v.1.15,2013-01-26 16:04:00,
2013-01-26 11:05:00,22.9,16.8,30.24,NNE,23,2.0,-999.0,77,0.00,,,0.00,Wunderground v.1.15,2013-01-26 16:05:00,
2013-01-26 11:07:00,22.9,16.8,30.24,NNE,23,2.0,-999.0,77,0.00,,,0.00,Wunderground v.1.15,2013-01-26 16:07:00,
2013-01-26 11:09:00,22.9,16.8,30.24,East,87,0.0,10.0,77,0.00,,,0.00,Wunderground v.1.15,2013-01-26 16:09:00,
2013-01-26 11:10:00,22.9,16.8,30.24,NNE,23,2.0,-999.0,77,0.00,,,0.00,Wunderground v.1.15,2013-01-26 16:10:00,
2013-01-26 11:12:00,22.9,16.8,30.24,NNE,23,2.0,-999.0,77,0.00,,,0.00,Wunderground v.1.15,2013-01-26 16:12:00,
2013-01-26 11:14:00,22.7,16.0,30.24,NNE,28,7.0,7.0,75,0.00,,,0.00,Wunderground v.1.15,2013-01-26 16:14:00,
2013-01-26 11:15:00,23.3,16.5,30.25,NNE,23,3.0,-999.0,75,0.00,,,0.00,Wunderground v.1.15,2013-01-26 16:15:00,
2013-01-26 11:17:00,23.3,16.5,30.25,NNE,23,3.0,-999.0,75,0.00,,,0.00,Wunderground v.1.15,2013-01-26 16:17:00,
2013-01-26 11:19:00,22.7,16.0,30.24,ESE,109,0.0,8.0,75,0.00,,,0.00,Wunderground v.1.15,2013-01-26 16:19:00,
2013-01-26 11:20:00,23.3,16.5,30.25,NNE,23,3.0,-999.0,75,0.00,,,0.00,Wunderground v.1.15,2013-01-26 16:20:00,
2013-01-26 11:22:00,23.3,16.5,30.25,NNE,23,3.0,-999.0,75,0.00,,,0.00,Wunderground v.1.15,2013-01-26 16:22:00,
2013-01-26 11:24:00,23.0,16.3,30.25,North,5,0.0,10.0,75,0.00,,,0.00,Wunderground v.1.15,2013-01-26 16:24:00,
2013-01-26 11:25:00,23.3,16.5,30.25,NNE,23,3.0,-999.0,75,0.00,,,0.00,Wunderground v.1.15,2013-01-26 16:25:00,
2013-01-26 11:27:00,23.3,16.5,30.25,NNE,23,3.0,-999.0,75,0.00,,,0.00,Wunderground v.1.15,2013-01-26 16:27:00,
2013-01-26 11:29:00,23.0,16.3,30.25,North,350,6.0,10.0,75,0.00,,,0.00,Wunderground v.1.15,2013-01-26 16:29:00,
2013-01-26 11:30:00,23.3,16.5,30.25,NNE,23,3.0,-999.0,75,0.00,,,0.00,Wunderground v.1.15,2013-01-26 16:30:00,
2013-01-26 11:32:00,23.3,16.5,30.25,NNE,23,3.0,-999.0,75,0.00,,,0.00,Wunderground v.1.15,2013-01-26 16:32:00,
2013-01-26 11:34:00,23.2,16.4,30.25,NNE,24,4.0,7.0,75,0.00,,,0.00,Wunderground v.1.15,2013-01-26 16:34:00,
2013-01-26 11:35:00,23.3,16.5,30.25,NNE,23,3.0,-999.0,75,0.00,,,0.00,Wunderground v.1.15,2013-01-26 16:35:00,
2013-01-26 11:37:00,23.3,16.5,30.25,NNE,23,3.0,-999.0,75,0.00,,,0.00,Wunderground v.1.15,2013-01-26 16:37:00,
2013-01-26 11:39:00,23.4,16.6,30.25,NNE,28,7.0,9.0,75,0.00,,,0.00,Wunderground v.1.15,2013-01-26 16:39:00,
2013-01-26 11:40:00,23.3,16.5,30.25,NNE,23,3.0,-999.0,75,0.00,,,0.00,Wunderground v.1.15,2013-01-26 16:40:00,
2013-01-26 11:42:00,23.3,16.5,30.25,NNE,23,3.0,-999.0,75,0.00,,,0.00,Wunderground v.1.15,2013-01-26 16:42:00,
2013-01-26 11:44:00,23.3,16.2,30.25,NNE,31,0.0,10.0,74,0.00,,,0.00,Wunderground v.1.15,2013-01-26 16:44:00,
2013-01-26 11:45:00,23.6,16.5,30.25,NE,45,3.0,-999.0,74,0.00,,,0.00,Wunderground v.1.15,2013-01-26 16:45:00,
2013-01-26 11:47:00,23.6,16.5,30.25,NE,45,3.0,-999.0,74,0.00,,,0.00,Wunderground v.1.15,2013-01-26 16:47:00,
2013-01-26 11:49:00,23.2,16.1,30.25,ENE,76,0.0,10.0,74,0.00,,,0.00,Wunderground v.1.15,2013-01-26 16:49:00,
2013-01-26 11:50:00,23.6,16.5,30.25,NE,45,3.0,-999.0,74,0.00,,,0.00,Wunderground v.1.15,2013-01-26 16:50:00,
2013-01-26 11:52:00,23.6,16.5,30.25,NE,45,3.0,-999.0,74,0.00,,,0.00,Wunderground v.1.15,2013-01-26 16:52:00,
2013-01-26 11:54:00,23.2,16.1,30.25,ENE,65,0.0,6.0,74,0.00,,,0.00,Wunderground v.1.15,2013-01-26 16:54:00,
2013-01-26 11:55:00,23.6,16.5,30.25,NE,45,3.0,-999.0,74,0.00,,,0.00,Wunderground v.1.15,2013-01-26 16:55:00,
2013-01-26 11:57:00,23.6,16.5,30.25,NE,45,3.0,-999.0,74,0.00,,,0.00,Wunderground v.1.15,2013-01-26 16:57:00,
2013-01-26 11:59:00,23.2,16.1,30.25,NE,41,3.0,6.0,74,0.00,,,0.00,Wunderground v.1.15,2013-01-26 16:59:00,
2013-01-26 12:00:00,23.6,16.5,30.25,NE,45,3.0,-999.0,74,0.00,,,0.00,Wunderground v.1.15,2013-01-26 17:00:00,
2013-01-26 12:02:00,23.6,16.5,30.25,NE,45,3.0,-999.0,74,0.00,,,0.00,Wunderground v.1.15,2013-01-26 17:02:00,
2013-01-26 12:04:00,23.3,16.2,30.25,ENE,65,0.0,11.0,74,0.00,,,0.00,Wunderground v.1.15,2013-01-26 17:04:00,
2013-01-26 12:05:00,23.6,16.5,30.25,NE,45,3.0,-999.0,74,0.00,,,0.00,Wunderground v.1.15,2013-01-26 17:05:00,
2013-01-26 12:07:00,23.6,16.5,30.25,NE,45,3.0,-999.0,74,0.00,,,0.00,Wunderground v.1.15,2013-01-26 17:07:00,
2013-01-26 12:09:00,23.6,16.5,30.25,NNE,22,5.0,11.0,74,0.00,,,0.00,Wunderground v.1.15,2013-01-26 17:09:00,
2013-01-26 12:10:00,23.6,16.5,30.25,NE,45,3.0,-999.0,74,0.00,,,0.00,Wunderground v.1.15,2013-01-26 17:10:00,
2013-01-26 12:12:00,23.6,16.5,30.25,NE,45,3.0,-999.0,74,0.00,,,0.00,Wunderground v.1.15,2013-01-26 17:12:00,
2013-01-26 12:14:00,23.7,16.6,30.25,ESE,122,4.0,6.0,74,0.00,,,0.00,Wunderground v.1.15,2013-01-26 17:14:00,
2013-01-26 12:15:00,23.9,16.5,30.25,NNE,23,2.0,-999.0,73,0.00,,,0.00,Wunderground v.1.15,2013-01-26 17:15:00,
2013-01-26 12:17:00,23.9,16.5,30.25,NNE,23,2.0,-999.0,73,0.00,,,0.00,Wunderground v.1.15,2013-01-26 17:17:00,
2013-01-26 12:19:00,24.1,17.0,30.25,ENE,75,0.0,6.0,74,0.00,,,0.00,Wunderground v.1.15,2013-01-26 17:19:00,
2013-01-26 12:20:00,23.9,16.5,30.25,NNE,23,2.0,-999.0,73,0.00,,,0.00,Wunderground v.1.15,2013-01-26 17:20:00,
2013-01-26 12:22:00,23.9,16.5,30.25,NNE,23,2.0,-999.0,73,0.00,,,0.00,Wunderground v.1.15,2013-01-26 17:22:00,
2013-01-26 12:24:00,24.0,16.3,30.25,NE,35,4.0,6.0,72,0.00,,,0.00,Wunderground v.1.15,2013-01-26 17:24:00,
2013-01-26 12:25:00,23.9,16.5,30.25,NNE,23,2.0,-999.0,73,0.00,,,0.00,Wunderground v.1.15,2013-01-26 17:25:00,
2013-01-26 12:27:00,23.9,16.5,30.25,NNE,23,2.0,-999.0,73,0.00,,,0.00,Wunderground v.1.15,2013-01-26 17:27:00,
2013-01-26 12:29:00,23.9,16.5,30.25,NNE,23,2.0,-999.0,73,0.00,,,0.00,Wunderground v.1.15,2013-01-26 17:29:00,
2013-01-26 12:30:00,24.0,16.3,30.25,North,360,1.0,10.0,72,0.00,,,0.00,Wunderground v.1.15,2013-01-26 17:30:00,
2013-01-26 12:32:00,23.9,16.5,30.25,NNE,23,2.0,-999.0,73,0.00,,,0.00,Wunderground v.1.15,2013-01-26 17:32:00,
2013-01-26 12:34:00,23.9,16.5,30.25,ENE,70,2.0,8.0,73,0.00,,,0.00,Wunderground v.1.15,2013-01-26 17:34:00,
2013-01-26 12:35:00,23.9,16.5,30.25,NNE,23,2.0,-999.0,73,0.00,,,0.00,Wunderground v.1.15,2013-01-26 17:35:00,
2013-01-26 12:37:00,23.9,16.5,30.25,NNE,23,2.0,-999.0,73,0.00,,,0.00,Wunderground v.1.15,2013-01-26 17:37:00,
2013-01-26 12:39:00,24.0,16.6,30.25,NNE,21,3.0,8.0,73,0.00,,,0.00,Wunderground v.1.15,2013-01-26 17:39:00,
2013-01-26 12:40:00,23.9,16.5,30.25,NNE,23,2.0,-999.0,73,0.00,,,0.00,Wunderground v.1.15,2013-01-26 17:40:00,
2013-01-26 12:42:00,23.9,16.5,30.25,NNE,23,2.0,-999.0,73,0.00,,,0.00,Wunderground v.1.15,2013-01-26 17:42:00,
2013-01-26 12:44:00,23.9,16.5,30.25,NNE,23,2.0,-999.0,73,0.00,,,0.00,Wunderground v.1.15,2013-01-26 17:44:00,
2013-01-26 12:45:00,24.1,16.7,30.25,NE,40,5.0,11.0,73,0.00,,,0.00,Wunderground v.1.15,2013-01-26 17:45:00,
2013-01-26 12:47:00,24.4,16.3,30.26,NNE,23,2.0,-999.0,71,0.00,,,0.00,Wunderground v.1.15,2013-01-26 17:47:00,
2013-01-26 12:49:00,24.4,16.3,30.26,NNE,23,2.0,-999.0,71,0.00,,,0.00,Wunderground v.1.15,2013-01-26 17:49:00,
2013-01-26 12:50:00,24.4,17.0,30.25,NNE,30,2.0,11.0,73,0.00,,,0.00,Wunderground v.1.15,2013-01-26 17:50:00,
2013-01-26 12:52:00,24.4,16.3,30.26,NNE,23,2.0,-999.0,71,0.00,,,0.00,Wunderground v.1.15,2013-01-26 17:52:00,
2013-01-26 12:54:00,24.4,16.3,30.26,NNE,23,2.0,-999.0,71,0.00,,,0.00,Wunderground v.1.15,2013-01-26 17:54:00,
2013-01-26 12:55:00,24.8,17.4,30.25,ENE,59,1.0,7.0,73,0.00,,,0.00,Wunderground v.1.15,2013-01-26 17:55:00,
2013-01-26 12:57:00,24.4,16.3,30.26,NNE,23,2.0,-999.0,71,0.00,,,0.00,Wunderground v.1.15,2013-01-26 17:57:00,
2013-01-26 12:59:00,24.4,16.3,30.26,NNE,23,2.0,-999.0,71,0.00,,,0.00,Wunderground v.1.15,2013-01-26 17:59:00,
2013-01-26 13:00:00,24.8,16.7,30.25,ENE,69,1.0,7.0,71,0.00,,,0.00,Wunderground v.1.15,2013-01-26 18:00:00,
2013-01-26 13:02:00,24.4,16.3,30.26,NNE,23,2.0,-999.0,71,0.00,,,0.00,Wunderground v.1.15,2013-01-26 18:02:00,
2013-01-26 13:04:00,24.4,16.3,30.26,NNE,23,2.0,-999.0,71,0.00,,,0.00,Wunderground v.1.15,2013-01-26 18:04:00,
2013-01-26 13:05:00,24.6,16.2,30.25,ENE,71,0.0,8.0,70,0.00,,,0.00,Wunderground v.1.15,2013-01-26 18:05:00,
2013-01-26 13:07:00,24.4,16.3,30.26,NNE,23,2.0,-999.0,71,0.00,,,0.00,Wunderground v.1.15,2013-01-26 18:07:00,
2013-01-26 13:09:00,24.4,16.3,30.26,NNE,23,2.0,-999.0,71,0.00,,,0.00,Wunderground v.1.15,2013-01-26 18:09:00,
2013-01-26 13:10:00,24.4,16.3,30.26,ENE,78,6.0,8.0,71,0.00,,,0.00,Wunderground v.1.15,2013-01-26 18:10:00,
2013-01-26 13:12:00,24.4,16.3,30.26,NNE,23,2.0,-999.0,71,0.00,,,0.00,Wunderground v.1.15,2013-01-26 18:12:00,
2013-01-26 13:14:00,24.4,16.3,30.26,NNE,23,2.0,-999.0,71,0.00,,,0.00,Wunderground v.1.15,2013-01-26 18:14:00,
2013-01-26 13:15:00,24.4,16.3,30.26,ESE,121,4.0,9.0,71,0.00,,,0.00,Wunderground v.1.15,2013-01-26 18:15:00,
2013-01-26 13:17:00,24.5,15.8,30.25,NE,45,3.0,-999.0,69,0.00,,,0.00,Wunderground v.1.15,2013-01-26 18:17:00,
2013-01-26 13:19:00,24.5,15.8,30.25,NE,45,3.0,-999.0,69,0.00,,,0.00,Wunderground v.1.15,2013-01-26 18:19:00,
2013-01-26 13:20:00,24.5,16.1,30.26,NE,44,0.0,9.0,70,0.00,,,0.00,Wunderground v.1.15,2013-01-26 18:20:00,
2013-01-26 13:22:00,24.5,15.8,30.25,NE,45,3.0,-999.0,69,0.00,,,0.00,Wunderground v.1.15,2013-01-26 18:22:00,
2013-01-26 13:24:00,24.5,15.8,30.25,NE,45,3.0,-999.0,69,0.00,,,0.00,Wunderground v.1.15,2013-01-26 18:24:00,
2013-01-26 13:25:00,24.4,15.7,30.25,NNE,15,2.0,11.0,69,0.00,,,0.00,Wunderground v.1.15,2013-01-26 18:25:00,
2013-01-26 13:27:00,24.5,15.8,30.25,NE,45,3.0,-999.0,69,0.00,,,0.00,Wunderground v.1.15,2013-01-26 18:27:00,
2013-01-26 13:29:00,24.5,15.8,30.25,NE,45,3.0,-999.0,69,0.00,,,0.00,Wunderground v.1.15,2013-01-26 18:29:00,
2013-01-26 13:30:00,24.5,15.4,30.25,ENE,71,0.0,12.0,68,0.00,,,0.00,Wunderground v.1.15,2013-01-26 18:30:00,
2013-01-26 13:32:00,24.5,15.8,30.25,NE,45,3.0,-999.0,69,0.00,,,0.00,Wunderground v.1.15,2013-01-26 18:32:00,
2013-01-26 13:34:00,24.5,15.8,30.25,NE,45,3.0,-999.0,69,0.00,,,0.00,Wunderground v.1.15,2013-01-26 18:34:00,
2013-01-26 13:35:00,24.5,15.4,30.25,NNW,346,4.0,11.0,68,0.00,,,0.00,Wunderground v.1.15,2013-01-26 18:35:00,
2013-01-26 13:37:00,24.5,15.8,30.25,NE,45,3.0,-999.0,69,0.00,,,0.00,Wunderground v.1.15,2013-01-26 18:37:00,
2013-01-26 13:40:00,24.5,15.8,30.25,ENE,61,7.0,11.0,69,0.00,,,0.00,Wunderground v.1.15,2013-01-26 18:40:00,
2013-01-26 13:42:00,24.5,15.8,30.25,NE,45,3.0,-999.0,69,0.00,,,0.00,Wunderground v.1.15,2013-01-26 18:42:00,
2013-01-26 13:45:00,24.5,15.8,30.25,NE,52,5.0,7.0,69,0.00,,,0.00,Wunderground v.1.15,2013-01-26 18:45:00,
2013-01-26 13:47:00,24.8,16.1,30.26,ENE,68,3.0,-999.0,69,0.00,,,0.00,Wunderground v.1.15,2013-01-26 18:47:00,
2013-01-26 13:50:00,24.6,16.2,30.25,ESE,118,2.0,9.0,70,0.00,,,0.00,Wunderground v.1.15,2013-01-26 18:50:00,
2013-01-26 13:52:00,24.8,16.1,30.26,ENE,68,3.0,-999.0,69,0.00,,,0.00,Wunderground v.1.15,2013-01-26 18:52:00,
2013-01-26 13:55:00,24.7,16.0,30.26,East,88,2.0,10.0,69,0.00,,,0.00,Wunderground v.1.15,2013-01-26 18:55:00,
2013-01-26 13:57:00,24.8,16.1,30.26,ENE,68,3.0,-999.0,69,0.00,,,0.00,Wunderground v.1.15,2013-01-26 18:57:00,
2013-01-26 14:00:00,24.8,16.1,30.26,NNE,30,3.0,10.0,69,0.00,,,0.00,Wunderground v.1.15,2013-01-26 19:00:00,
2013-01-26 14:02:00,24.8,16.1,30.26,ENE,68,3.0,-999.0,69,0.00,,,0.00,Wunderground v.1.15,2013-01-26 19:02:00,
2013-01-26 14:05:00,24.9,16.2,30.26,ESE,107,0.0,8.0,69,0.00,,,0.00,Wunderground v.1.15,2013-01-26 19:05:00,
2013-01-26 14:07:00,24.8,16.1,30.26,ENE,68,3.0,-999.0,69,0.00,,,0.00,Wunderground v.1.15,2013-01-26 19:07:00,
2013-01-26 14:10:00,24.8,16.1,30.26,ENE,63,9.0,9.0,69,0.00,,,0.00,Wunderground v.1.15,2013-01-26 19:10:00,
2013-01-26 14:12:00,24.8,16.1,30.26,ENE,68,3.0,-999.0,69,0.00,,,0.00,Wunderground v.1.15,2013-01-26 19:12:00,
2013-01-26 14:16:00,24.8,16.1,30.26,North,355,10.0,10.0,69,0.00,,,0.00,Wunderground v.1.15,2013-01-26 19:16:00,
2013-01-26 14:17:00,24.7,16.6,30.26,NNE,23,2.0,-999.0,71,0.00,,,0.00,Wunderground v.1.15,2013-01-26 19:17:00,
2013-01-26 14:20:00,24.8,16.1,30.26,NE,43,5.0,5.0,69,0.00,,,0.00,Wunderground v.1.15,2013-01-26 19:20:00,
2013-01-26 14:22:00,24.7,16.6,30.26,NNE,23,2.0,-999.0,71,0.00,,,0.00,Wunderground v.1.15,2013-01-26 19:22:00,
2013-01-26 14:25:00,24.8,16.1,30.26,North,9,8.0,9.0,69,0.00,,,0.00,Wunderground v.1.15,2013-01-26 19:25:00,
2013-01-26 14:27:00,24.7,16.6,30.26,NNE,23,2.0,-999.0,71,0.00,,,0.00,Wunderground v.1.15,2013-01-26 19:27:00,
2013-01-26 14:30:00,24.7,16.6,30.26,NNE,23,2.0,-999.0,71,0.00,,,0.00,Wunderground v.1.15,2013-01-26 19:30:00,
2013-01-26 14:31:00,24.7,16.3,30.26,NE,46,0.0,3.0,70,0.00,,,0.00,Wunderground v.1.15,2013-01-26 19:31:00,
2013-01-26 14:32:00,24.7,16.6,30.26,NNE,23,2.0,-999.0,71,0.00,,,0.00,Wunderground v.1.15,2013-01-26 19:32:00,
2013-01-26 14:35:00,24.7,16.6,30.26,NNE,23,2.0,-999.0,71,0.00,,,0.00,Wunderground v.1.15,2013-01-26 19:35:00,
2013-01-26 14:36:00,24.7,16.3,30.26,North,5,4.0,7.0,70,0.00,,,0.00,Wunderground v.1.15,2013-01-26 19:36:00,
2013-01-26 14:37:00,24.7,16.6,30.26,NNE,23,2.0,-999.0,71,0.00,,,0.00,Wunderground v.1.15,2013-01-26 19:37:00,
2013-01-26 14:40:00,24.7,16.6,30.26,East,80,0.0,3.0,71,0.00,,,0.00,Wunderground v.1.15,2013-01-26 19:40:00,
2013-01-26 14:45:00,24.7,17.6,30.27,NNE,23,2.0,-999.0,74,0.00,,,0.00,Wunderground v.1.15,2013-01-26 19:45:00,
2013-01-26 14:46:00,24.7,16.6,30.26,ENE,61,0.0,7.0,71,0.00,,,0.00,Wunderground v.1.15,2013-01-26 19:46:00,
2013-01-26 14:47:00,24.7,17.6,30.27,NNE,23,2.0,-999.0,74,0.00,,,0.00,Wunderground v.1.15,2013-01-26 19:47:00,
2013-01-26 14:50:00,24.7,17.6,30.27,NNE,23,2.0,-999.0,74,0.00,,,0.00,Wunderground v.1.15,2013-01-26 19:50:00,
2013-01-26 14:51:00,24.5,16.4,30.26,NE,41,0.0,4.0,71,0.00,,,0.00,Wunderground v.1.15,2013-01-26 19:51:00,
2013-01-26 14:52:00,24.7,17.6,30.27,NNE,23,2.0,-999.0,74,0.00,,,0.00,Wunderground v.1.15,2013-01-26 19:52:00,
2013-01-26 14:55:00,24.7,17.6,30.27,NNE,23,2.0,-999.0,74,0.00,,,0.00,Wunderground v.1.15,2013-01-26 19:55:00,
2013-01-26 14:56:00,24.6,16.5,30.26,NNE,17,7.0,7.0,71,0.00,,,0.00,Wunderground v.1.15,2013-01-26 19:56:00,
2013-01-26 14:57:00,24.7,17.6,30.27,NNE,23,2.0,-999.0,74,0.00,,,0.00,Wunderground v.1.15,2013-01-26 19:57:00,
2013-01-26 15:00:00,24.7,17.6,30.27,NNE,23,2.0,-999.0,74,0.00,,,0.00,Wunderground v.1.15,2013-01-26 20:00:00,
2013-01-26 15:01:00,24.7,17.0,30.26,NE,36,1.0,4.0,72,0.00,,,0.00,Wunderground v.1.15,2013-01-26 20:01:00,
2013-01-26 15:05:00,24.7,17.6,30.27,NNE,23,2.0,-999.0,74,0.00,,,0.00,Wunderground v.1.15,2013-01-26 20:05:00,
2013-01-26 15:06:00,24.7,17.3,30.26,NNE,32,0.0,8.0,73,0.00,,,0.00,Wunderground v.1.15,2013-01-26 20:06:00,
2013-01-26 15:07:00,24.7,17.6,30.27,NNE,23,2.0,-999.0,74,0.00,,,0.00,Wunderground v.1.15,2013-01-26 20:07:00,
2013-01-26 15:10:00,24.7,17.6,30.27,NNE,23,2.0,-999.0,74,0.00,,,0.00,Wunderground v.1.15,2013-01-26 20:10:00,
2013-01-26 15:11:00,24.7,17.6,30.27,ENE,57,1.0,4.0,74,0.00,,,0.00,Wunderground v.1.15,2013-01-26 20:11:00,
2013-01-26 15:12:00,24.7,17.6,30.27,NNE,23,2.0,-999.0,74,0.00,,,0.00,Wunderground v.1.15,2013-01-26 20:12:00,
2013-01-26 15:15:00,24.7,17.9,30.28,ENE,68,1.0,-999.0,75,0.00,,,0.00,Wunderground v.1.15,2013-01-26 20:15:00,
2013-01-26 15:16:00,24.5,17.7,30.27,NNE,33,0.0,7.0,75,0.00,,,0.00,Wunderground v.1.15,2013-01-26 20:16:00,
2013-01-26 15:20:00,24.7,17.9,30.28,ENE,68,1.0,-999.0,75,0.00,,,0.00,Wunderground v.1.15,2013-01-26 20:20:00,
2013-01-26 15:21:00,24.5,17.7,30.27,ENE,64,2.0,2.0,75,0.00,,,0.00,Wunderground v.1.15,2013-01-26 20:21:00,
2013-01-26 15:22:00,24.7,17.9,30.28,ENE,68,1.0,-999.0,75,0.00,,,0.00,Wunderground v.1.15,2013-01-26 20:22:00,
2013-01-26 15:25:00,24.7,17.9,30.28,ENE,68,1.0,-999.0,75,0.00,,,0.00,Wunderground v.1.15,2013-01-26 20:25:00,
2013-01-26 15:26:00,24.4,17.6,30.27,ENE,67,0.0,5.0,75,0.00,,,0.00,Wunderground v.1.15,2013-01-26 20:26:00,
2013-01-26 15:27:00,24.7,17.9,30.28,ENE,68,1.0,-999.0,75,0.00,,,0.00,Wunderground v.1.15,2013-01-26 20:27:00,
2013-01-26 15:30:00,24.7,17.9,30.28,ENE,68,1.0,-999.0,75,0.00,,,0.00,Wunderground v.1.15,2013-01-26 20:30:00,
2013-01-26 15:31:00,24.5,17.7,30.27,NE,49,0.0,1.0,75,0.00,,,0.00,Wunderground v.1.15,2013-01-26 20:31:00,
2013-01-26 15:32:00,24.7,17.9,30.28,ENE,68,1.0,-999.0,75,0.00,,,0.00,Wunderground v.1.15,2013-01-26 20:32:00,
2013-01-26 15:35:00,24.7,17.9,30.28,ENE,68,1.0,-999.0,75,0.00,,,0.00,Wunderground v.1.15,2013-01-26 20:35:00,
2013-01-26 15:36:00,24.7,17.9,30.27,NE,45,0.0,4.0,75,0.00,,,0.00,Wunderground v.1.15,2013-01-26 20:36:00,
2013-01-26 15:37:00,24.7,17.9,30.28,ENE,68,1.0,-999.0,75,0.00,,,0.00,Wunderground v.1.15,2013-01-26 20:37:00,
2013-01-26 15:40:00,24.7,17.9,30.28,ENE,68,1.0,-999.0,75,0.00,,,0.00,Wunderground v.1.15,2013-01-26 20:40:00,
2013-01-26 15:41:00,24.8,18.0,30.28,NE,37,0.0,5.0,75,0.00,,,0.00,Wunderground v.1.15,2013-01-26 20:41:00,
2013-01-26 15:42:00,24.7,17.9,30.28,ENE,68,1.0,-999.0,75,0.00,,,0.00,Wunderground v.1.15,2013-01-26 20:42:00,
2013-01-26 15:45:00,24.7,17.3,30.29,NNE,23,1.0,-999.0,73,0.00,,,0.00,Wunderground v.1.15,2013-01-26 20:45:00,
2013-01-26 15:46:00,24.8,18.0,30.28,NE,40,0.0,5.0,75,0.00,,,0.00,Wunderground v.1.15,2013-01-26 20:46:00,
2013-01-26 15:50:00,24.7,17.3,30.29,NNE,23,1.0,-999.0,73,0.00,,,0.00,Wunderground v.1.15,2013-01-26 20:50:00,
2013-01-26 15:51:00,24.8,17.7,30.28,NNE,17,0.0,2.0,74,0.00,,,0.00,Wunderground v.1.15,2013-01-26 20:51:00,
2013-01-26 15:52:00,24.7,17.3,30.29,NNE,23,1.0,-999.0,73,0.00,,,0.00,Wunderground v.1.15,2013-01-26 20:52:00,
2013-01-26 15:55:00,24.7,17.3,30.29,NNE,23,1.0,-999.0,73,0.00,,,0.00,Wunderground v.1.15,2013-01-26 20:55:00,
2013-01-26 15:56:00,24.8,17.7,30.29,NNE,29,2.0,7.0,74,0.00,,,0.00,Wunderground v.1.15,2013-01-26 20:56:00,
2013-01-26 15:57:00,24.7,17.3,30.29,NNE,23,1.0,-999.0,73,0.00,,,0.00,Wunderground v.1.15,2013-01-26 20:57:00,
2013-01-26 16:00:00,24.7,17.3,30.29,NNE,23,1.0,-999.0,73,0.00,,,0.00,Wunderground v.1.15,2013-01-26 21:00:00,
2013-01-26 16:01:00,24.7,17.3,30.29,NNE,18,0.0,5.0,73,0.00,,,0.00,Wunderground v.1.15,2013-01-26 21:01:00,
2013-01-26 16:02:00,24.7,17.3,30.29,NNE,23,1.0,-999.0,73,0.00,,,0.00,Wunderground v.1.15,2013-01-26 21:02:00,
2013-01-26 16:05:00,24.7,17.3,30.29,NNE,23,1.0,-999.0,73,0.00,,,0.00,Wunderground v.1.15,2013-01-26 21:05:00,
2013-01-26 16:06:00,24.7,17.3,30.29,NE,41,0.0,5.0,73,0.00,,,0.00,Wunderground v.1.15,2013-01-26 21:06:00,
2013-01-26 16:07:00,24.7,17.3,30.29,NNE,23,1.0,-999.0,73,0.00,,,0.00,Wunderground v.1.15,2013-01-26 21:07:00,
2013-01-26 16:10:00,24.7,17.3,30.29,NNE,23,1.0,-999.0,73,0.00,,,0.00,Wunderground v.1.15,2013-01-26 21:10:00,
2013-01-26 16:11:00,24.7,17.3,30.29,NE,38,0.0,4.0,73,0.00,,,0.00,Wunderground v.1.15,2013-01-26 21:11:00,
2013-01-26 16:12:00,24.7,17.3,30.29,NNE,23,1.0,-999.0,73,0.00,,,0.00,Wunderground v.1.15,2013-01-26 21:12:00,
2013-01-26 16:15:00,24.7,17.0,30.30,NNE,23,1.0,-999.0,72,0.00,,,0.00,Wunderground v.1.15,2013-01-26 21:15:00,
2013-01-26 16:16:00,24.6,16.9,30.29,NNE,28,0.0,9.0,72,0.00,,,0.00,Wunderground v.1.15,2013-01-26 21:16:00,
2013-01-26 16:17:00,24.7,17.0,30.30,NNE,23,1.0,-999.0,72,0.00,,,0.00,Wunderground v.1.15,2013-01-26 21:17:00,
2013-01-26 16:20:00,24.7,17.0,30.30,NNE,23,1.0,-999.0,72,0.00,,,0.00,Wunderground v.1.15,2013-01-26 21:20:00,
2013-01-26 16:21:00,24.7,17.3,30.29,NNE,16,1.0,4.0,73,0.00,,,0.00,Wunderground v.1.15,2013-01-26 21:21:00,
2013-01-26 16:22:00,24.7,17.0,30.30,NNE,23,1.0,-999.0,72,0.00,,,0.00,Wunderground v.1.15,2013-01-26 21:22:00,
2013-01-26 16:25:00,24.7,17.0,30.30,NNE,23,1.0,-999.0,72,0.00,,,0.00,Wunderground v.1.15,2013-01-26 21:25:00,
2013-01-26 16:26:00,24.7,17.3,30.30,ENE,68,0.0,4.0,73,0.00,,,0.00,Wunderground v.1.15,2013-01-26 21:26:00,
2013-01-26 16:27:00,24.7,17.0,30.30,NNE,23,1.0,-999.0,72,0.00,,,0.00,Wunderground v.1.15,2013-01-26 21:27:00,
2013-01-26 16:30:00,24.7,17.0,30.30,NNE,23,1.0,-999.0,72,0.00,,,0.00,Wunderground v.1.15,2013-01-26 21:30:00,
2013-01-26 16:31:00,24.7,17.3,30.30,NE,46,0.0,5.0,73,0.00,,,0.00,Wunderground v.1.15,2013-01-26 21:31:00,
2013-01-26 16:32:00,24.7,17.0,30.30,NNE,23,1.0,-999.0,72,0.00,,,0.00,Wunderground v.1.15,2013-01-26 21:32:00,
2013-01-26 16:35:00,24.7,17.0,30.30,NNE,23,1.0,-999.0,72,0.00,,,0.00,Wunderground v.1.15,2013-01-26 21:35:00,
2013-01-26 16:36:00,24.7,17.3,30.30,NNE,15,0.0,6.0,73,0.00,,,0.00,Wunderground v.1.15,2013-01-26 21:36:00,
2013-01-26 16:37:00,24.7,17.0,30.30,NNE,23,1.0,-999.0,72,0.00,,,0.00,Wunderground v.1.15,2013-01-26 21:37:00,
2013-01-26 16:40:00,24.7,17.0,30.30,NNE,23,1.0,-999.0,72,0.00,,,0.00,Wunderground v.1.15,2013-01-26 21:40:00,
2013-01-26 16:41:00,24.7,17.0,30.30,NNE,19,0.0,2.0,72,0.00,,,0.00,Wunderground v.1.15,2013-01-26 21:41:00,
2013-01-26 16:42:00,24.7,17.0,30.30,NNE,23,1.0,-999.0,72,0.00,,,0.00,Wunderground v.1.15,2013-01-26 21:42:00,
2013-01-26 16:45:00,24.5,17.1,30.31,NNE,23,1.0,-999.0,73,0.00,,,0.00,Wunderground v.1.15,2013-01-26 21:45:00,
2013-01-26 16:46:00,24.7,17.3,30.30,NNE,18,1.0,2.0,73,0.00,,,0.00,Wunderground v.1.15,2013-01-26 21:46:00,
2013-01-26 16:47:00,24.5,17.1,30.31,NNE,23,1.0,-999.0,73,0.00,,,0.00,Wunderground v.1.15,2013-01-26 21:47:00,
2013-01-26 16:50:00,24.5,17.1,30.31,NNE,23,1.0,-999.0,73,0.00,,,0.00,Wunderground v.1.15,2013-01-26 21:50:00,
2013-01-26 16:51:00,24.6,16.9,30.30,NNE,31,0.0,5.0,72,0.00,,,0.00,Wunderground v.1.15,2013-01-26 21:51:00,
2013-01-26 16:52:00,24.5,17.1,30.31,NNE,23,1.0,-999.0,73,0.00,,,0.00,Wunderground v.1.15,2013-01-26 21:52:00,
2013-01-26 16:55:00,24.5,17.1,30.31,NNE,23,1.0,-999.0,73,0.00,,,0.00,Wunderground v.1.15,2013-01-26 21:55:00,
2013-01-26 16:56:00,24.6,16.9,30.31,NNE,29,0.0,6.0,72,0.00,,,0.00,Wunderground v.1.15,2013-01-26 21:56:00,
2013-01-26 16:57:00,24.5,17.1,30.31,NNE,23,1.0,-999.0,73,0.00,,,0.00,Wunderground v.1.15,2013-01-26 21:57:00,
2013-01-26 17:00:00,24.5,17.1,30.31,NNE,23,1.0,-999.0,73,0.00,,,0.00,Wunderground v.1.15,2013-01-26 22:00:00,
2013-01-26 17:01:00,24.5,16.8,30.31,NE,34,0.0,1.0,72,0.00,,,0.00,Wunderground v.1.15,2013-01-26 22:01:00,
2013-01-26 17:02:00,24.5,17.1,30.31,NNE,23,1.0,-999.0,73,0.00,,,0.00,Wunderground v.1.15,2013-01-26 22:02:00,
2013-01-26 17:05:00,24.5,17.1,30.31,NNE,23,1.0,-999.0,73,0.00,,,0.00,Wunderground v.1.15,2013-01-26 22:05:00,
2013-01-26 17:06:00,24.5,17.1,30.31,NE,41,0.0,4.0,73,0.00,,,0.00,Wunderground v.1.15,2013-01-26 22:06:00,
2013-01-26 17:07:00,24.5,17.1,30.31,NNE,23,1.0,-999.0,73,0.00,,,0.00,Wunderground v.1.15,2013-01-26 22:07:00,
2013-01-26 17:10:00,24.5,17.1,30.31,NNE,23,1.0,-999.0,73,0.00,,,0.00,Wunderground v.1.15,2013-01-26 22:10:00,
2013-01-26 17:11:00,24.5,17.1,30.31,NE,35,0.0,1.0,73,0.00,,,0.00,Wunderground v.1.15,2013-01-26 22:11:00,
2013-01-26 17:12:00,24.5,17.1,30.31,NNE,23,1.0,-999.0,73,0.00,,,0.00,Wunderground v.1.15,2013-01-26 22:12:00,
2013-01-26 17:15:00,24.2,16.8,30.32,NE,45,0.0,-999.0,73,0.00,,,0.00,Wunderground v.1.15,2013-01-26 22:15:00,
2013-01-26 17:16:00,24.4,17.0,30.31,NE,43,0.0,4.0,73,0.00,,,0.00,Wunderground v.1.15,2013-01-26 22:16:00,
2013-01-26 17:17:00,24.2,16.8,30.32,NE,45,0.0,-999.0,73,0.00,,,0.00,Wunderground v.1.15,2013-01-26 22:17:00,
2013-01-26 17:20:00,24.2,16.8,30.32,NE,45,0.0,-999.0,73,0.00,,,0.00,Wunderground v.1.15,2013-01-26 22:20:00,
2013-01-26 17:21:00,24.4,17.0,30.31,NE,42,0.0,1.0,73,0.00,,,0.00,Wunderground v.1.15,2013-01-26 22:21:00,
2013-01-26 17:22:00,24.2,16.8,30.32,NE,45,0.0,-999.0,73,0.00,,,0.00,Wunderground v.1.15,2013-01-26 22:22:00,
2013-01-26 17:25:00,24.2,16.8,30.32,NE,45,0.0,-999.0,73,0.00,,,0.00,Wunderground v.1.15,2013-01-26 22:25:00,
2013-01-26 17:26:00,24.3,16.9,30.32,NE,43,0.0,2.0,73,0.00,,,0.00,Wunderground v.1.15,2013-01-26 22:26:00,
2013-01-26 17:27:00,24.2,16.8,30.32,NE,45,0.0,-999.0,73,0.00,,,0.00,Wunderground v.1.15,2013-01-26 22:27:00,
2013-01-26 17:30:00,24.2,16.8,30.32,NE,45,0.0,-999.0,73,0.00,,,0.00,Wunderground v.1.15,2013-01-26 22:30:00,
2013-01-26 17:31:00,24.3,16.9,30.32,NE,43,0.0,2.0,73,0.00,,,0.00,Wunderground v.1.15,2013-01-26 22:31:00,
2013-01-26 17:32:00,24.2,16.8,30.32,NE,45,0.0,-999.0,73,0.00,,,0.00,Wunderground v.1.15,2013-01-26 22:32:00,
2013-01-26 17:35:00,24.2,16.8,30.32,NE,45,0.0,-999.0,73,0.00,,,0.00,Wunderground v.1.15,2013-01-26 22:35:00,
2013-01-26 17:36:00,24.2,16.8,30.32,NE,43,0.0,2.0,73,0.00,,,0.00,Wunderground v.1.15,2013-01-26 22:36:00,
2013-01-26 17:37:00,24.2,16.8,30.32,NE,45,0.0,-999.0,73,0.00,,,0.00,Wunderground v.1.15,2013-01-26 22:37:00,
2013-01-26 17:40:00,24.2,16.8,30.32,NE,45,0.0,-999.0,73,0.00,,,0.00,Wunderground v.1.15,2013-01-26 22:40:00,
2013-01-26 17:41:00,24.2,16.8,30.32,NE,43,0.0,0.0,73,0.00,,,0.00,Wunderground v.1.15,2013-01-26 22:41:00,
2013-01-26 17:42:00,24.2,16.8,30.32,NE,45,0.0,-999.0,73,0.00,,,0.00,Wunderground v.1.15,2013-01-26 22:42:00,
2013-01-26 17:45:00,23.9,17.1,30.34,NE,45,0.0,-999.0,75,0.00,,,0.00,Wunderground v.1.15,2013-01-26 22:45:00,
2013-01-26 17:46:00,24.1,17.0,30.32,NE,42,0.0,2.0,74,0.00,,,0.00,Wunderground v.1.15,2013-01-26 22:46:00,
2013-01-26 17:47:00,23.9,17.1,30.34,NE,45,0.0,-999.0,75,0.00,,,0.00,Wunderground v.1.15,2013-01-26 22:47:00,
2013-01-26 17:50:00,23.9,17.1,30.34,NE,45,0.0,-999.0,75,0.00,,,0.00,Wunderground v.1.15,2013-01-26 22:50:00,
2013-01-26 17:51:00,24.1,17.0,30.32,NE,43,0.0,0.0,74,0.00,,,0.00,Wunderground v.1.15,2013-01-26 22:51:00,
2013-01-26 17:52:00,23.9,17.1,30.34,NE,45,0.0,-999.0,75,0.00,,,0.00,Wunderground v.1.15,2013-01-26 22:52:00,
2013-01-26 17:55:00,23.9,17.1,30.34,NE,45,0.0,-999.0,75,0.00,,,0.00,Wunderground v.1.15,2013-01-26 22:55:00,
2013-01-26 17:56:00,24.0,16.9,30.33,NE,43,0.0,0.0,74,0.00,,,0.00,Wunderground v.1.15,2013-01-26 22:56:00,
2013-01-26 17:57:00,23.9,17.1,30.34,NE,45,0.0,-999.0,75,0.00,,,0.00,Wunderground v.1.15,2013-01-26 22:57:00,
2013-01-26 18:00:00,23.9,17.1,30.34,NE,45,0.0,-999.0,75,0.00,,,0.00,Wunderground v.1.15,2013-01-26 23:00:00,
2013-01-26 18:02:00,23.9,16.8,30.33,NE,42,0.0,1.0,74,0.00,,,0.00,Wunderground v.1.15,2013-01-26 23:02:00,
2013-01-26 18:05:00,23.9,17.1,30.34,NE,45,0.0,-999.0,75,0.00,,,0.00,Wunderground v.1.15,2013-01-26 23:05:00,
2013-01-26 18:07:00,23.9,17.1,30.33,NE,43,0.0,2.0,75,0.00,,,0.00,Wunderground v.1.15,2013-01-26 23:07:00,
2013-01-26 18:10:00,23.9,17.1,30.34,NE,45,0.0,-999.0,75,0.00,,,0.00,Wunderground v.1.15,2013-01-26 23:10:00,
2013-01-26 18:12:00,23.9,17.1,30.34,NE,42,0.0,0.0,75,0.00,,,0.00,Wunderground v.1.15,2013-01-26 23:12:00,
2013-01-26 18:15:00,23.6,16.8,30.36,N/A,-737280,0.0,-999.0,75,0.00,,,0.00,Wunderground v.1.15,2013-01-26 23:15:00,
2013-01-26 18:17:00,23.9,16.8,30.34,NE,43,0.0,0.0,74,0.00,,,0.00,Wunderground v.1.15,2013-01-26 23:17:00,
2013-01-26 18:20:00,23.6,16.8,30.36,N/A,-737280,0.0,-999.0,75,0.00,,,0.00,Wunderground v.1.15,2013-01-26 23:20:00,
2013-01-26 18:22:00,23.8,17.0,30.34,NE,43,0.0,0.0,75,0.00,,,0.00,Wunderground v.1.15,2013-01-26 23:22:00,
2013-01-26 18:25:00,23.6,16.8,30.36,N/A,-737280,0.0,-999.0,75,0.00,,,0.00,Wunderground v.1.15,2013-01-26 23:25:00,
2013-01-26 18:27:00,23.7,16.9,30.35,NE,42,0.0,0.0,75,0.00,,,0.00,Wunderground v.1.15,2013-01-26 23:27:00,
2013-01-26 18:30:00,23.6,16.8,30.36,N/A,-737280,0.0,-999.0,75,0.00,,,0.00,Wunderground v.1.15,2013-01-26 23:30:00,
2013-01-26 18:32:00,23.6,16.8,30.35,NE,42,0.0,0.0,75,0.00,,,0.00,Wunderground v.1.15,2013-01-26 23:32:00,
2013-01-26 18:35:00,23.6,16.8,30.36,N/A,-737280,0.0,-999.0,75,0.00,,,0.00,Wunderground v.1.15,2013-01-26 23:35:00,
2013-01-26 18:37:00,23.6,16.8,30.35,NE,43,0.0,0.0,75,0.00,,,0.00,Wunderground v.1.15,2013-01-26 23:37:00,
2013-01-26 18:40:00,23.6,16.8,30.36,N/A,-737280,0.0,-999.0,75,0.00,,,0.00,Wunderground v.1.15,2013-01-26 23:40:00,
2013-01-26 18:42:00,23.5,16.7,30.36,NE,43,0.0,0.0,75,0.00,,,0.00,Wunderground v.1.15,2013-01-26 23:42:00,
2013-01-26 18:45:00,22.6,16.2,30.36,NE,45,0.0,-999.0,76,0.00,,,0.00,Wunderground v.1.15,2013-01-26 23:45:00,
2013-01-26 18:47:00,23.4,16.6,30.36,NE,42,0.0,0.0,75,0.00,,,0.00,Wunderground v.1.15,2013-01-26 23:47:00,
2013-01-26 18:50:00,22.6,16.2,30.36,NE,45,0.0,-999.0,76,0.00,,,0.00,Wunderground v.1.15,2013-01-26 23:50:00,
2013-01-26 18:52:00,23.3,16.5,30.36,NE,42,0.0,0.0,75,0.00,,,0.00,Wunderground v.1.15,2013-01-26 23:52:00,
2013-01-26 18:55:00,22.6,16.2,30.36,NE,45,0.0,-999.0,76,0.00,,,0.00,Wunderground v.1.15,2013-01-26 23:55:00,
2013-01-26 18:57:00,23.2,16.8,30.36,NE,42,0.0,0.0,76,0.00,,,0.00,Wunderground v.1.15,2013-01-26 23:57:00,
2013-01-26 19:00:00,22.6,16.2,30.36,NE,45,0.0,-999.0,76,0.00,,,0.00,Wunderground v.1.15,2013-01-27 00:00:00,
2013-01-26 19:02:00,23.0,16.6,30.36,NE,42,0.0,0.0,76,0.00,,,0.00,Wunderground v.1.15,2013-01-27 00:02:00,
2013-01-26 19:05:00,22.6,16.2,30.36,NE,45,0.0,-999.0,76,0.00,,,0.00,Wunderground v.1.15,2013-01-27 00:05:00,
2013-01-26 19:07:00,22.8,16.4,30.36,NE,42,0.0,0.0,76,0.00,,,0.00,Wunderground v.1.15,2013-01-27 00:07:00,
2013-01-26 19:10:00,22.6,16.2,30.36,NE,45,0.0,-999.0,76,0.00,,,0.00,Wunderground v.1.15,2013-01-27 00:10:00,
2013-01-26 19:12:00,22.4,16.0,30.36,NE,42,0.0,0.0,76,0.00,,,0.00,Wunderground v.1.15,2013-01-27 00:12:00,
2013-01-26 19:15:00,21.0,15.8,30.36,NE,45,0.0,-999.0,80,0.00,,,0.00,Wunderground v.1.15,2013-01-27 00:15:00,
2013-01-26 19:17:00,22.0,15.6,30.36,NE,42,0.0,0.0,76,0.00,,,0.00,Wunderground v.1.15,2013-01-27 00:17:00,
2013-01-26 19:20:00,21.0,15.8,30.36,NE,45,0.0,-999.0,80,0.00,,,0.00,Wunderground v.1.15,2013-01-27 00:20:00,
2013-01-26 19:22:00,21.6,15.5,30.36,NE,43,0.0,0.0,77,0.00,,,0.00,Wunderground v.1.15,2013-01-27 00:22:00,
2013-01-26 19:25:00,21.0,15.8,30.36,NE,45,0.0,-999.0,80,0.00,,,0.00,Wunderground v.1.15,2013-01-27 00:25:00,
2013-01-26 19:27:00,21.3,15.5,30.36,NE,43,0.0,0.0,78,0.00,,,0.00,Wunderground v.1.15,2013-01-27 00:27:00,
2013-01-26 19:30:00,21.0,15.8,30.36,NE,45,0.0,-999.0,80,0.00,,,0.00,Wunderground v.1.15,2013-01-27 00:30:00,
2013-01-26 19:32:00,21.1,15.6,30.36,NE,42,0.0,0.0,79,0.00,,,0.00,Wunderground v.1.15,2013-01-27 00:32:00,
2013-01-26 19:35:00,21.0,15.8,30.36,NE,45,0.0,-999.0,80,0.00,,,0.00,Wunderground v.1.15,2013-01-27 00:35:00,
2013-01-26 19:37:00,21.0,15.5,30.36,NE,43,0.0,0.0,79,0.00,,,0.00,Wunderground v.1.15,2013-01-27 00:37:00,
2013-01-26 19:40:00,21.0,15.8,30.36,NE,45,0.0,-999.0,80,0.00,,,0.00,Wunderground v.1.15,2013-01-27 00:40:00,
2013-01-26 19:42:00,21.0,15.8,30.36,NE,43,0.0,0.0,80,0.00,,,0.00,Wunderground v.1.15,2013-01-27 00:42:00,
2013-01-26 19:45:00,20.6,15.7,30.36,N/A,-737280,0.0,-999.0,81,0.00,,,0.00,Wunderground v.1.15,2013-01-27 00:45:00,
2013-01-26 19:47:00,20.9,15.7,30.36,NE,42,0.0,0.0,80,0.00,,,0.00,Wunderground v.1.15,2013-01-27 00:47:00,
2013-01-26 19:50:00,20.6,15.7,30.36,N/A,-737280,0.0,-999.0,81,0.00,,,0.00,Wunderground v.1.15,2013-01-27 00:50:00,
2013-01-26 19:52:00,20.8,15.6,30.36,NE,42,0.0,0.0,80,0.00,,,0.00,Wunderground v.1.15,2013-01-27 00:52:00,
2013-01-26 19:55:00,20.6,15.7,30.36,N/A,-737280,0.0,-999.0,81,0.00,,,0.00,Wunderground v.1.15,2013-01-27 00:55:00,
2013-01-26 19:57:00,20.8,15.6,30.36,NE,43,0.0,0.0,80,0.00,,,0.00,Wunderground v.1.15,2013-01-27 00:57:00,
2013-01-26 20:00:00,20.6,15.7,30.36,N/A,-737280,0.0,-999.0,81,0.00,,,0.00,Wunderground v.1.15,2013-01-27 01:00:00,
2013-01-26 20:02:00,20.7,15.8,30.36,NE,43,0.0,0.0,81,0.00,,,0.00,Wunderground v.1.15,2013-01-27 01:02:00,
2013-01-26 20:05:00,20.6,15.7,30.36,N/A,-737280,0.0,-999.0,81,0.00,,,0.00,Wunderground v.1.15,2013-01-27 01:05:00,
2013-01-26 20:07:00,20.6,15.7,30.36,NE,43,0.0,0.0,81,0.00,,,0.00,Wunderground v.1.15,2013-01-27 01:07:00,
2013-01-26 20:10:00,20.6,15.7,30.36,N/A,-737280,0.0,-999.0,81,0.00,,,0.00,Wunderground v.1.15,2013-01-27 01:10:00,
2013-01-26 20:12:00,20.6,15.7,30.36,NE,43,0.0,0.0,81,0.00,,,0.00,Wunderground v.1.15,2013-01-27 01:12:00,
2013-01-26 20:15:00,20.1,15.2,30.36,N/A,-737280,0.0,-999.0,81,0.00,,,0.00,Wunderground v.1.15,2013-01-27 01:15:00,
2013-01-26 20:17:00,20.6,15.7,30.36,NE,42,0.0,0.0,81,0.00,,,0.00,Wunderground v.1.15,2013-01-27 01:17:00,
2013-01-26 20:20:00,20.1,15.2,30.36,N/A,-737280,0.0,-999.0,81,0.00,,,0.00,Wunderground v.1.15,2013-01-27 01:20:00,
2013-01-26 20:22:00,20.5,15.6,30.36,NE,42,0.0,0.0,81,0.00,,,0.00,Wunderground v.1.15,2013-01-27 01:22:00,
2013-01-26 20:25:00,20.1,15.2,30.36,N/A,-737280,0.0,-999.0,81,0.00,,,0.00,Wunderground v.1.15,2013-01-27 01:25:00,
2013-01-26 20:27:00,20.4,15.5,30.36,NE,43,0.0,0.0,81,0.00,,,0.00,Wunderground v.1.15,2013-01-27 01:27:00,
2013-01-26 20:30:00,20.1,15.2,30.36,N/A,-737280,0.0,-999.0,81,0.00,,,0.00,Wunderground v.1.15,2013-01-27 01:30:00,
2013-01-26 20:32:00,20.1,15.2,30.36,N/A,-737280,0.0,-999.0,81,0.00,,,0.00,Wunderground v.1.15,2013-01-27 01:32:00,
2013-01-26 20:33:00,20.3,15.4,30.36,NE,42,0.0,0.0,81,0.00,,,0.00,Wunderground v.1.15,2013-01-27 01:33:00,
2013-01-26 20:35:00,20.1,15.2,30.36,N/A,-737280,0.0,-999.0,81,0.00,,,0.00,Wunderground v.1.15,2013-01-27 01:35:00,
2013-01-26 20:37:00,20.1,15.2,30.36,N/A,-737280,0.0,-999.0,81,0.00,,,0.00,Wunderground v.1.15,2013-01-27 01:37:00,
2013-01-26 20:38:00,20.1,15.2,30.36,NE,42,0.0,0.0,81,0.00,,,0.00,Wunderground v.1.15,2013-01-27 01:38:00,
2013-01-26 20:40:00,20.1,15.2,30.36,N/A,-737280,0.0,-999.0,81,0.00,,,0.00,Wunderground v.1.15,2013-01-27 01:40:00,
2013-01-26 20:42:00,20.1,15.2,30.36,N/A,-737280,0.0,-999.0,81,0.00,,,0.00,Wunderground v.1.15,2013-01-27 01:42:00,
2013-01-26 20:43:00,19.9,15.3,30.36,NE,43,0.0,0.0,82,0.00,,,0.00,Wunderground v.1.15,2013-01-27 01:43:00,
2013-01-26 20:45:00,19.1,14.8,30.37,N/A,-737280,0.0,-999.0,83,0.00,,,0.00,Wunderground v.1.15,2013-01-27 01:45:00,
2013-01-26 20:47:00,19.1,14.8,30.37,N/A,-737280,0.0,-999.0,83,0.00,,,0.00,Wunderground v.1.15,2013-01-27 01:47:00,
2013-01-26 20:48:00,19.7,15.1,30.36,NE,43,0.0,0.0,82,0.00,,,0.00,Wunderground v.1.15,2013-01-27 01:48:00,
2013-01-26 20:50:00,19.1,14.8,30.37,N/A,-737280,0.0,-999.0,83,0.00,,,0.00,Wunderground v.1.15,2013-01-27 01:50:00,
2013-01-26 20:52:00,19.1,14.8,30.37,N/A,-737280,0.0,-999.0,83,0.00,,,0.00,Wunderground v.1.15,2013-01-27 01:52:00,
2013-01-26 20:53:00,19.4,14.8,30.36,NE,42,0.0,0.0,82,0.00,,,0.00,Wunderground v.1.15,2013-01-27 01:53:00,
2013-01-26 20:55:00,19.1,14.8,30.37,N/A,-737280,0.0,-999.0,83,0.00,,,0.00,Wunderground v.1.15,2013-01-27 01:55:00,
2013-01-26 20:57:00,19.1,14.8,30.37,N/A,-737280,0.0,-999.0,83,0.00,,,0.00,Wunderground v.1.15,2013-01-27 01:57:00,
2013-01-26 20:58:00,19.3,14.7,30.37,NE,42,0.0,0.0,82,0.00,,,0.00,Wunderground v.1.15,2013-01-27 01:58:00,
2013-01-26 21:00:00,19.1,14.8,30.37,N/A,-737280,0.0,-999.0,83,0.00,,,0.00,Wunderground v.1.15,2013-01-27 02:00:00,
2013-01-26 21:02:00,19.1,14.8,30.37,N/A,-737280,0.0,-999.0,83,0.00,,,0.00,Wunderground v.1.15,2013-01-27 02:02:00,
2013-01-26 21:03:00,19.2,14.9,30.37,NE,43,0.0,0.0,83,0.00,,,0.00,Wunderground v.1.15,2013-01-27 02:03:00,
2013-01-26 21:05:00,19.1,14.8,30.37,N/A,-737280,0.0,-999.0,83,0.00,,,0.00,Wunderground v.1.15,2013-01-27 02:05:00,
2013-01-26 21:07:00,19.1,14.8,30.37,N/A,-737280,0.0,-999.0,83,0.00,,,0.00,Wunderground v.1.15,2013-01-27 02:07:00,
2013-01-26 21:08:00,19.1,14.8,30.37,NE,43,0.0,0.0,83,0.00,,,0.00,Wunderground v.1.15,2013-01-27 02:08:00,
2013-01-26 21:10:00,19.1,14.8,30.37,N/A,-737280,0.0,-999.0,83,0.00,,,0.00,Wunderground v.1.15,2013-01-27 02:10:00,
2013-01-26 21:12:00,19.1,14.8,30.37,N/A,-737280,0.0,-999.0,83,0.00,,,0.00,Wunderground v.1.15,2013-01-27 02:12:00,
2013-01-26 21:13:00,19.0,14.7,30.37,NE,43,0.0,0.0,83,0.00,,,0.00,Wunderground v.1.15,2013-01-27 02:13:00,
2013-01-26 21:15:00,18.9,15.1,30.37,N/A,-737280,0.0,-999.0,85,0.00,,,0.00,Wunderground v.1.15,2013-01-27 02:15:00,
2013-01-26 21:17:00,18.9,15.1,30.37,N/A,-737280,0.0,-999.0,85,0.00,,,0.00,Wunderground v.1.15,2013-01-27 02:17:00,
2013-01-26 21:18:00,18.8,14.8,30.37,NE,42,0.0,0.0,84,0.00,,,0.00,Wunderground v.1.15,2013-01-27 02:18:00,
2013-01-26 21:20:00,18.9,15.1,30.37,N/A,-737280,0.0,-999.0,85,0.00,,,0.00,Wunderground v.1.15,2013-01-27 02:20:00,
2013-01-26 21:22:00,18.9,15.1,30.37,N/A,-737280,0.0,-999.0,85,0.00,,,0.00,Wunderground v.1.15,2013-01-27 02:22:00,
2013-01-26 21:23:00,18.9,14.9,30.37,NE,42,0.0,0.0,84,0.00,,,0.00,Wunderground v.1.15,2013-01-27 02:23:00,
2013-01-26 21:25:00,18.9,15.1,30.37,N/A,-737280,0.0,-999.0,85,0.00,,,0.00,Wunderground v.1.15,2013-01-27 02:25:00,
2013-01-26 21:27:00,18.9,15.1,30.37,N/A,-737280,0.0,-999.0,85,0.00,,,0.00,Wunderground v.1.15,2013-01-27 02:27:00,
2013-01-26 21:28:00,18.9,14.9,30.36,NE,43,0.0,0.0,84,0.00,,,0.00,Wunderground v.1.15,2013-01-27 02:28:00,
2013-01-26 21:30:00,18.9,15.1,30.37,N/A,-737280,0.0,-999.0,85,0.00,,,0.00,Wunderground v.1.15,2013-01-27 02:30:00,
2013-01-26 21:32:00,18.9,15.1,30.37,N/A,-737280,0.0,-999.0,85,0.00,,,0.00,Wunderground v.1.15,2013-01-27 02:32:00,
2013-01-26 21:33:00,18.9,14.9,30.36,NE,43,0.0,0.0,84,0.00,,,0.00,Wunderground v.1.15,2013-01-27 02:33:00,
2013-01-26 21:35:00,18.9,15.1,30.37,N/A,-737280,0.0,-999.0,85,0.00,,,0.00,Wunderground v.1.15,2013-01-27 02:35:00,
2013-01-26 21:37:00,18.9,15.1,30.37,N/A,-737280,0.0,-999.0,85,0.00,,,0.00,Wunderground v.1.15,2013-01-27 02:37:00,
2013-01-26 21:38:00,18.9,14.9,30.36,NE,43,0.0,0.0,84,0.00,,,0.00,Wunderground v.1.15,2013-01-27 02:38:00,
2013-01-26 21:40:00,18.9,15.1,30.37,N/A,-737280,0.0,-999.0,85,0.00,,,0.00,Wunderground v.1.15,2013-01-27 02:40:00,
2013-01-26 21:42:00,18.9,15.1,30.37,N/A,-737280,0.0,-999.0,85,0.00,,,0.00,Wunderground v.1.15,2013-01-27 02:42:00,
2013-01-26 21:43:00,18.9,15.1,30.37,NE,43,0.0,0.0,85,0.00,,,0.00,Wunderground v.1.15,2013-01-27 02:43:00,
2013-01-26 21:45:00,19.3,15.5,30.37,N/A,-737280,0.0,-999.0,85,0.00,,,0.00,Wunderground v.1.15,2013-01-27 02:45:00,
2013-01-26 21:47:00,19.3,15.5,30.37,N/A,-737280,0.0,-999.0,85,0.00,,,0.00,Wunderground v.1.15,2013-01-27 02:47:00,
2013-01-26 21:48:00,18.9,15.1,30.37,NE,42,0.0,0.0,85,0.00,,,0.00,Wunderground v.1.15,2013-01-27 02:48:00,
2013-01-26 21:50:00,19.3,15.5,30.37,N/A,-737280,0.0,-999.0,85,0.00,,,0.00,Wunderground v.1.15,2013-01-27 02:50:00,
2013-01-26 21:52:00,19.3,15.5,30.37,N/A,-737280,0.0,-999.0,85,0.00,,,0.00,Wunderground v.1.15,2013-01-27 02:52:00,
2013-01-26 21:53:00,18.9,15.1,30.37,NE,43,0.0,0.0,85,0.00,,,0.00,Wunderground v.1.15,2013-01-27 02:53:00,
2013-01-26 21:55:00,19.3,15.5,30.37,N/A,-737280,0.0,-999.0,85,0.00,,,0.00,Wunderground v.1.15,2013-01-27 02:55:00,
2013-01-26 21:57:00,19.3,15.5,30.37,N/A,-737280,0.0,-999.0,85,0.00,,,0.00,Wunderground v.1.15,2013-01-27 02:57:00,
2013-01-26 21:58:00,18.9,15.1,30.37,NE,42,0.0,0.0,85,0.00,,,0.00,Wunderground v.1.15,2013-01-27 02:58:00,
2013-01-26 22:00:00,19.3,15.5,30.37,N/A,-737280,0.0,-999.0,85,0.00,,,0.00,Wunderground v.1.15,2013-01-27 03:00:00,
2013-01-26 22:02:00,19.3,15.5,30.37,N/A,-737280,0.0,-999.0,85,0.00,,,0.00,Wunderground v.1.15,2013-01-27 03:02:00,
2013-01-26 22:03:00,19.1,15.3,30.37,NE,43,0.0,0.0,85,0.00,,,0.00,Wunderground v.1.15,2013-01-27 03:03:00,
2013-01-26 22:05:00,19.3,15.5,30.37,N/A,-737280,0.0,-999.0,85,0.00,,,0.00,Wunderground v.1.15,2013-01-27 03:05:00,
2013-01-26 22:07:00,19.3,15.5,30.37,N/A,-737280,0.0,-999.0,85,0.00,,,0.00,Wunderground v.1.15,2013-01-27 03:07:00,
2013-01-26 22:08:00,19.2,15.4,30.37,NE,43,0.0,0.0,85,0.00,,,0.00,Wunderground v.1.15,2013-01-27 03:08:00,
2013-01-26 22:10:00,19.3,15.5,30.37,N/A,-737280,0.0,-999.0,85,0.00,,,0.00,Wunderground v.1.15,2013-01-27 03:10:00,
2013-01-26 22:12:00,19.3,15.5,30.37,N/A,-737280,0.0,-999.0,85,0.00,,,0.00,Wunderground v.1.15,2013-01-27 03:12:00,
2013-01-26 22:13:00,19.3,15.5,30.37,NE,42,0.0,0.0,85,0.00,,,0.00,Wunderground v.1.15,2013-01-27 03:13:00,
2013-01-26 22:15:00,19.4,15.6,30.37,N/A,-737280,0.0,-999.0,85,0.00,,,0.00,Wunderground v.1.15,2013-01-27 03:15:00,
2013-01-26 22:17:00,19.4,15.6,30.37,N/A,-737280,0.0,-999.0,85,0.00,,,0.00,Wunderground v.1.15,2013-01-27 03:17:00,
2013-01-26 22:18:00,19.3,15.5,30.37,NE,42,0.0,0.0,85,0.00,,,0.00,Wunderground v.1.15,2013-01-27 03:18:00,
2013-01-26 22:20:00,19.4,15.6,30.37,N/A,-737280,0.0,-999.0,85,0.00,,,0.00,Wunderground v.1.15,2013-01-27 03:20:00,
2013-01-26 22:22:00,19.4,15.6,30.37,N/A,-737280,0.0,-999.0,85,0.00,,,0.00,Wunderground v.1.15,2013-01-27 03:22:00,
2013-01-26 22:23:00,19.3,15.5,30.37,NE,43,0.0,0.0,85,0.00,,,0.00,Wunderground v.1.15,2013-01-27 03:23:00,
2013-01-26 22:25:00,19.4,15.6,30.37,N/A,-737280,0.0,-999.0,85,0.00,,,0.00,Wunderground v.1.15,2013-01-27 03:25:00,
2013-01-26 22:27:00,19.4,15.6,30.37,N/A,-737280,0.0,-999.0,85,0.00,,,0.00,Wunderground v.1.15,2013-01-27 03:27:00,
2013-01-26 22:28:00,19.3,15.5,30.37,NE,43,0.0,0.0,85,0.00,,,0.00,Wunderground v.1.15,2013-01-27 03:28:00,
2013-01-26 22:30:00,19.4,15.6,30.37,N/A,-737280,0.0,-999.0,85,0.00,,,0.00,Wunderground v.1.15,2013-01-27 03:30:00,
2013-01-26 22:32:00,19.4,15.6,30.37,N/A,-737280,0.0,-999.0,85,0.00,,,0.00,Wunderground v.1.15,2013-01-27 03:32:00,
2013-01-26 22:33:00,19.3,15.5,30.37,NE,43,0.0,0.0,85,0.00,,,0.00,Wunderground v.1.15,2013-01-27 03:33:00,
2013-01-26 22:35:00,19.4,15.6,30.37,N/A,-737280,0.0,-999.0,85,0.00,,,0.00,Wunderground v.1.15,2013-01-27 03:35:00,
2013-01-26 22:37:00,19.4,15.6,30.37,N/A,-737280,0.0,-999.0,85,0.00,,,0.00,Wunderground v.1.15,2013-01-27 03:37:00,
2013-01-26 22:38:00,19.4,15.6,30.37,NE,42,0.0,0.0,85,0.00,,,0.00,Wunderground v.1.15,2013-01-27 03:38:00,
2013-01-26 22:40:00,19.4,15.6,30.37,N/A,-737280,0.0,-999.0,85,0.00,,,0.00,Wunderground v.1.15,2013-01-27 03:40:00,
2013-01-26 22:42:00,19.4,15.6,30.37,N/A,-737280,0.0,-999.0,85,0.00,,,0.00,Wunderground v.1.15,2013-01-27 03:42:00,
2013-01-26 22:43:00,19.4,15.6,30.37,NE,43,0.0,0.0,85,0.00,,,0.00,Wunderground v.1.15,2013-01-27 03:43:00,
2013-01-26 22:45:00,19.6,15.8,30.38,NE,45,0.0,-999.0,85,0.00,,,0.00,Wunderground v.1.15,2013-01-27 03:45:00,
2013-01-26 22:47:00,19.6,15.8,30.38,NE,45,0.0,-999.0,85,0.00,,,0.00,Wunderground v.1.15,2013-01-27 03:47:00,
2013-01-26 22:48:00,19.4,15.6,30.37,NE,43,0.0,0.0,85,0.00,,,0.00,Wunderground v.1.15,2013-01-27 03:48:00,
2013-01-26 22:50:00,19.6,15.8,30.38,NE,45,0.0,-999.0,85,0.00,,,0.00,Wunderground v.1.15,2013-01-27 03:50:00,
2013-01-26 22:52:00,19.6,15.8,30.38,NE,45,0.0,-999.0,85,0.00,,,0.00,Wunderground v.1.15,2013-01-27 03:52:00,
2013-01-26 22:55:00,19.6,15.8,30.38,NE,45,0.0,-999.0,85,0.00,,,0.00,Wunderground v.1.15,2013-01-27 03:55:00,
2013-01-26 22:57:00,19.6,15.8,30.38,NE,45,0.0,-999.0,85,0.00,,,0.00,Wunderground v.1.15,2013-01-27 03:57:00,
2013-01-26 23:00:00,19.6,15.8,30.38,NE,45,0.0,-999.0,85,0.00,,,0.00,Wunderground v.1.15,2013-01-27 04:00:00,
2013-01-26 23:02:00,19.6,15.8,30.38,NE,45,0.0,-999.0,85,0.00,,,0.00,Wunderground v.1.15,2013-01-27 04:02:00,
2013-01-26 23:05:00,19.6,15.8,30.38,NE,45,0.0,-999.0,85,0.00,,,0.00,Wunderground v.1.15,2013-01-27 04:05:00,
2013-01-26 23:07:00,19.6,15.8,30.38,NE,45,0.0,-999.0,85,0.00,,,0.00,Wunderground v.1.15,2013-01-27 04:07:00,
2013-01-26 23:10:00,19.6,15.8,30.38,NE,45,0.0,-999.0,85,0.00,,,0.00,Wunderground v.1.15,2013-01-27 04:10:00,
2013-01-26 23:12:00,19.6,15.8,30.38,NE,45,0.0,-999.0,85,0.00,,,0.00,Wunderground v.1.15,2013-01-27 04:12:00,
2013-01-26 23:15:00,19.2,15.4,30.39,N/A,-737280,0.0,-999.0,85,0.00,,,0.00,Wunderground v.1.15,2013-01-27 04:15:00,
2013-01-26 23:17:00,19.2,15.4,30.39,N/A,-737280,0.0,-999.0,85,0.00,,,0.00,Wunderground v.1.15,2013-01-27 04:17:00,
2013-01-26 23:20:00,19.2,15.4,30.39,N/A,-737280,0.0,-999.0,85,0.00,,,0.00,Wunderground v.1.15,2013-01-27 04:20:00,
2013-01-26 23:22:00,19.2,15.4,30.39,N/A,-737280,0.0,-999.0,85,0.00,,,0.00,Wunderground v.1.15,2013-01-27 04:22:00,
2013-01-26 23:25:00,19.2,15.4,30.39,N/A,-737280,0.0,-999.0,85,0.00,,,0.00,Wunderground v.1.15,2013-01-27 04:25:00,
2013-01-26 23:27:00,19.2,15.4,30.39,N/A,-737280,0.0,-999.0,85,0.00,,,0.00,Wunderground v.1.15,2013-01-27 04:27:00,
2013-01-26 23:30:00,19.2,15.4,30.39,N/A,-737280,0.0,-999.0,85,0.00,,,0.00,Wunderground v.1.15,2013-01-27 04:30:00,
2013-01-26 23:32:00,19.2,15.4,30.39,N/A,-737280,0.0,-999.0,85,0.00,,,0.00,Wunderground v.1.15,2013-01-27 04:32:00,
2013-01-26 23:35:00,19.2,15.4,30.39,N/A,-737280,0.0,-999.0,85,0.00,,,0.00,Wunderground v.1.15,2013-01-27 04:35:00,
2013-01-26 23:37:00,19.2,15.4,30.39,N/A,-737280,0.0,-999.0,85,0.00,,,0.00,Wunderground v.1.15,2013-01-27 04:37:00,
2013-01-26 23:40:00,19.2,15.4,30.39,N/A,-737280,0.0,-999.0,85,0.00,,,0.00,Wunderground v.1.15,2013-01-27 04:40:00,
2013-01-26 23:42:00,19.2,15.4,30.39,N/A,-737280,0.0,-999.0,85,0.00,,,0.00,Wunderground v.1.15,2013-01-27 04:42:00,
2013-01-26 23:45:00,18.5,14.7,30.41,NE,45,0.0,-999.0,85,0.00,,,0.00,Wunderground v.1.15,2013-01-27 04:45:00,
2013-01-26 23:47:00,18.5,14.7,30.41,NE,45,0.0,-999.0,85,0.00,,,0.00,Wunderground v.1.15,2013-01-27 04:47:00,
2013-01-26 23:50:00,18.5,14.7,30.41,NE,45,0.0,-999.0,85,0.00,,,0.00,Wunderground v.1.15,2013-01-27 04:50:00,
2013-01-26 23:52:00,18.5,14.7,30.41,NE,45,0.0,-999.0,85,0.00,,,0.00,Wunderground v.1.15,2013-01-27 04:52:00,
2013-01-26 23:55:00,18.5,14.7,30.41,NE,45,0.0,-999.0,85,0.00,,,0.00,Wunderground v.1.15,2013-01-27 04:55:00,
2013-01-26 23:57:00,18.5,14.7,30.41,NE,45,0.0,-999.0,85,0.00,,,0.00,Wunderground v.1.15,2013-01-27 04:57:00,